| time (UTC) | temp F | wind direction | speed MPH | gust MPH | rain 1hr in | rain 24hr in | rain mn in | humidity % | barometer mb |
| 20260507144204 | 54 | 16 | 7.0 | 13.0 | 0.00 | 0.00 | 0.00 | 27 | 1011.1 |
| 20260507144004 | 54 | 9 | 5.0 | 13.0 | 0.00 | 0.00 | 0.00 | 27 | 1011.1 |
| 20260507143825 | 54 | 3 | 5.0 | 13.0 | 0.00 | 0.00 | 0.00 | 28 | 1011.2 |
| 20260507143604 | 54 | 359 | 4.0 | 13.0 | 0.00 | 0.00 | 0.00 | 28 | 1011.1 |
| 20260507143404 | 54 | 360 | 6.0 | 13.0 | 0.00 | 0.00 | 0.00 | 28 | 1011.1 |
| 20260507143204 | 53 | 2 | 6.0 | 12.0 | 0.00 | 0.00 | 0.00 | 29 | 1011.1 |
| 20260507143004 | 53 | 3 | 5.0 | 12.0 | 0.00 | 0.00 | 0.00 | 28 | 1011.1 |
| 20260507142804 | 53 | 1 | 5.0 | 12.0 | 0.00 | 0.00 | 0.00 | 28 | 1011.1 |
| 20260507142604 | 52 | 1 | 6.0 | 12.0 | 0.00 | 0.00 | 0.00 | 28 | 1011.0 |
| 20260507142004 | 52 | 347 | 5.0 | 14.0 | 0.00 | 0.00 | 0.00 | 29 | 1011.0 |
| 20260507141825 | 52 | 349 | 6.0 | 14.0 | 0.00 | 0.00 | 0.00 | 29 | 1011.0 |
| 20260507141604 | 52 | 349 | 6.0 | 13.0 | 0.00 | 0.00 | 0.00 | 29 | 1011.0 |
| 20260507141404 | 52 | 350 | 6.0 | 9.0 | 0.00 | 0.00 | 0.00 | 28 | 1011.0 |
| 20260507141204 | 52 | 347 | 5.0 | 8.0 | 0.00 | 0.00 | 0.00 | 27 | 1011.1 |
| 20260507141025 | 52 | 344 | 5.0 | 8.0 | 0.00 | 0.00 | 0.00 | 30 | 1011.0 |
| 20260507140804 | 52 | 332 | 5.0 | 7.0 | 0.00 | 0.00 | 0.00 | 30 | 1011.0 |
| 20260507140604 | 52 | 317 | 3.0 | 7.0 | 0.00 | 0.00 | 0.00 | 29 | 1010.8 |
| 20260507140404 | 52 | 303 | 2.0 | 7.0 | 0.00 | 0.00 | 0.00 | 30 | 1010.8 |
| 20260507140204 | 52 | 299 | 4.0 | 7.0 | 0.00 | 0.00 | 0.00 | 30 | 1010.8 |
| 20260507140004 | 52 | 295 | 3.0 | 7.0 | 0.00 | 0.00 | 0.00 | 30 | 1010.9 |
| 20260507135804 | 52 | 293 | 3.0 | 7.0 | 0.00 | 0.00 | 0.00 | 31 | 1010.8 |
| 20260507135604 | 52 | 296 | 4.0 | 7.0 | 0.00 | 0.00 | 0.00 | 31 | 1010.9 |
| 20260507135425 | 52 | 298 | 3.0 | 7.0 | 0.00 | 0.00 | 0.00 | 31 | 1010.9 |
| 20260507135204 | 51 | 296 | 4.0 | 7.0 | 0.00 | 0.00 | 0.00 | 32 | 1010.9 |
| 20260507135004 | 51 | 295 | 3.0 | 7.0 | 0.00 | 0.00 | 0.00 | 32 | 1010.8 |
| 20260507134804 | 51 | 296 | 5.0 | 7.0 | 0.00 | 0.00 | 0.00 | 31 | 1010.8 |
| 20260507134625 | 51 | 293 | 3.0 | 6.0 | 0.00 | 0.00 | 0.00 | 32 | 1010.8 |
| 20260507134404 | 50 | 295 | 3.0 | 6.0 | 0.00 | 0.00 | 0.00 | 33 | 1010.8 |
| 20260507134204 | 50 | 297 | 3.0 | 6.0 | 0.00 | 0.00 | 0.00 | 32 | 1010.8 |
| 20260507134004 | 50 | 299 | 4.0 | 6.0 | 0.00 | 0.00 | 0.00 | 32 | 1010.8 |
| 20260507133804 | 50 | 304 | 3.0 | 6.0 | 0.00 | 0.00 | 0.00 | 34 | 1010.7 |
| 20260507133604 | 50 | 307 | 3.0 | 6.0 | 0.00 | 0.00 | 0.00 | 32 | 1010.7 |
| 20260507133425 | 50 | 308 | 3.0 | 6.0 | 0.00 | 0.00 | 0.00 | 32 | 1010.6 |
| 20260507133204 | 50 | 305 | 2.0 | 6.0 | 0.00 | 0.00 | 0.00 | 34 | 1010.6 |
| 20260507133025 | 49 | 302 | 3.0 | 6.0 | 0.00 | 0.00 | 0.00 | 32 | 1010.7 |
| 20260507132804 | 49 | 294 | 3.0 | 5.0 | 0.00 | 0.00 | 0.00 | 34 | 1010.6 |
| 20260507132625 | 49 | 289 | 3.0 | 7.0 | 0.00 | 0.00 | 0.00 | 34 | 1010.7 |
| 20260507132405 | 49 | 281 | 2.0 | 7.0 | 0.00 | 0.00 | 0.00 | 36 | 1010.7 |
| 20260507132204 | 49 | 280 | 3.0 | 7.0 | 0.00 | 0.00 | 0.00 | 34 | 1010.8 |
| 20260507132004 | 49 | 281 | 3.0 | 7.0 | 0.00 | 0.00 | 0.00 | 34 | 1010.7 |
| 20260507131804 | 48 | 281 | 4.0 | 7.0 | 0.00 | 0.00 | 0.00 | 37 | 1010.6 |
| 20260507131604 | 48 | 281 | 4.0 | 6.0 | 0.00 | 0.00 | 0.00 | 37 | 1010.6 |
| 20260507131404 | 48 | 284 | 3.0 | 6.0 | 0.00 | 0.00 | 0.00 | 34 | 1010.6 |
| 20260507131204 | 48 | 283 | 4.0 | 6.0 | 0.00 | 0.00 | 0.00 | 36 | 1010.5 |
| 20260507131025 | 48 | 283 | 4.0 | 6.0 | 0.00 | 0.00 | 0.00 | 36 | 1010.5 |
| 20260507130805 | 47 | 282 | 3.0 | 6.0 | 0.00 | 0.00 | 0.00 | 36 | 1010.5 |
| 20260507130604 | 47 | 281 | 4.0 | 6.0 | 0.00 | 0.00 | 0.00 | 36 | 1010.3 |
| 20260507130404 | 46 | 282 | 3.0 | 7.0 | 0.00 | 0.00 | 0.00 | 37 | 1010.4 |
| 20260507130225 | 46 | 283 | 3.0 | 7.0 | 0.00 | 0.00 | 0.00 | 38 | 1010.4 |
| 20260507130004 | 46 | 283 | 5.0 | 7.0 | 0.00 | 0.00 | 0.00 | 38 | 1010.4 |
| 20260507125804 | 46 | 285 | 4.0 | 8.0 | 0.00 | 0.00 | 0.00 | 37 | 1010.4 |
| 20260507125604 | 45 | 285 | 5.0 | 8.0 | 0.00 | 0.00 | 0.00 | 38 | 1010.3 |
| 20260507125404 | 45 | 283 | 5.0 | 9.0 | 0.00 | 0.00 | 0.00 | 40 | 1010.4 |
| 20260507125204 | 44 | 283 | 4.0 | 9.0 | 0.00 | 0.00 | 0.00 | 39 | 1010.3 |
| 20260507125025 | 44 | 282 | 5.0 | 9.0 | 0.00 | 0.00 | 0.00 | 39 | 1010.3 |
| 20260507124804 | 44 | 280 | 7.0 | 9.0 | 0.00 | 0.00 | 0.00 | 39 | 1010.2 |
| 20260507124625 | 44 | 279 | 7.0 | 9.0 | 0.00 | 0.00 | 0.00 | 39 | 1010.2 |
| 20260507124404 | 43 | 278 | 8.0 | 10.0 | 0.00 | 0.00 | 0.00 | 40 | 1010.2 |
| 20260507124204 | 43 | 276 | 7.0 | 10.0 | 0.00 | 0.00 | 0.00 | 41 | 1010.1 |
| 20260507124004 | 43 | 276 | 8.0 | 12.0 | 0.00 | 0.00 | 0.00 | 40 | 1010.2 |
| 20260507123804 | 42 | 275 | 8.0 | 12.0 | 0.00 | 0.00 | 0.00 | 40 | 1010.1 |
| 20260507123604 | 42 | 274 | 8.0 | 12.0 | 0.00 | 0.00 | 0.00 | 40 | 1010.1 |
| 20260507123404 | 42 | 273 | 8.0 | 12.0 | 0.00 | 0.00 | 0.00 | 40 | 1010.1 |
| 20260507123204 | 42 | 272 | 9.0 | 12.0 | 0.00 | 0.00 | 0.00 | 40 | 1010.1 |
| 20260507123004 | 42 | 271 | 9.0 | 12.0 | 0.00 | 0.00 | 0.00 | 40 | 1010.0 |
| 20260507122804 | 41 | 271 | 9.0 | 12.0 | 0.00 | 0.00 | 0.00 | 41 | 1009.9 |
| 20260507122625 | 41 | 272 | 9.0 | 12.0 | 0.00 | 0.00 | 0.00 | 41 | 1009.9 |
| 20260507122404 | 41 | 274 | 9.0 | 12.0 | 0.00 | 0.00 | 0.00 | 40 | 1009.9 |
| 20260507122204 | 41 | 277 | 9.0 | 12.0 | 0.00 | 0.00 | 0.00 | 40 | 1009.8 |
| 20260507122004 | 41 | 279 | 9.0 | 12.0 | 0.00 | 0.00 | 0.00 | 41 | 1009.9 |
| 20260507121804 | 40 | 282 | 9.0 | 12.0 | 0.00 | 0.00 | 0.00 | 42 | 1009.9 |
| 20260507121604 | 40 | 283 | 9.0 | 12.0 | 0.00 | 0.00 | 0.00 | 42 | 1009.8 |
| 20260507121404 | 40 | 283 | 9.0 | 12.0 | 0.00 | 0.00 | 0.00 | 42 | 1009.8 |
| 20260507121204 | 40 | 281 | 9.0 | 12.0 | 0.00 | 0.00 | 0.00 | 42 | 1009.8 |
| 20260507121004 | 40 | 279 | 8.0 | 10.0 | 0.00 | 0.00 | 0.00 | 42 | 1009.7 |
| 20260507120804 | 40 | 276 | 8.0 | 10.0 | 0.00 | 0.00 | 0.00 | 42 | 1009.7 |
| 20260507120604 | 40 | 273 | 8.0 | 12.0 | 0.00 | 0.00 | 0.00 | 42 | 1009.7 |
| 20260507120404 | 39 | 270 | 8.0 | 12.0 | 0.00 | 0.00 | 0.00 | 42 | 1009.7 |
| 20260507120204 | 39 | 269 | 8.0 | 12.0 | 0.00 | 0.00 | 0.00 | 42 | 1009.8 |
| 20260507120004 | 39 | 267 | 9.0 | 12.0 | 0.00 | 0.00 | 0.00 | 42 | 1009.7 |
| 20260507115804 | 39 | 266 | 9.0 | 12.0 | 0.00 | 0.00 | 0.00 | 42 | 1009.8 |
| 20260507115604 | 39 | 267 | 9.0 | 12.0 | 0.00 | 0.00 | 0.00 | 42 | 1009.7 |
| 20260507115404 | 39 | 268 | 9.0 | 12.0 | 0.00 | 0.00 | 0.00 | 42 | 1009.7 |
| 20260507115204 | 39 | 268 | 8.0 | 12.0 | 0.00 | 0.00 | 0.00 | 42 | 1009.6 |
| 20260507115004 | 39 | 270 | 8.0 | 12.0 | 0.00 | 0.00 | 0.00 | 42 | 1009.6 |
| 20260507114804 | 39 | 273 | 8.0 | 12.0 | 0.00 | 0.00 | 0.00 | 41 | 1009.7 |
| 20260507114604 | 39 | 274 | 8.0 | 12.0 | 0.00 | 0.00 | 0.00 | 41 | 1009.6 |
| 20260507114404 | 39 | 275 | 8.0 | 12.0 | 0.00 | 0.00 | 0.00 | 41 | 1009.5 |
| 20260507114204 | 39 | 277 | 9.0 | 10.0 | 0.00 | 0.00 | 0.00 | 41 | 1009.6 |
| 20260507114004 | 39 | 279 | 8.0 | 10.0 | 0.00 | 0.00 | 0.00 | 41 | 1009.5 |
| 20260507113825 | 40 | 281 | 7.0 | 10.0 | 0.00 | 0.00 | 0.00 | 40 | 1009.5 |
| 20260507113625 | 40 | 281 | 7.0 | 10.0 | 0.00 | 0.00 | 0.00 | 40 | 1009.4 |
| 20260507113425 | 40 | 282 | 8.0 | 10.0 | 0.00 | 0.00 | 0.00 | 40 | 1009.4 |
| 20260507113204 | 40 | 280 | 9.0 | 10.0 | 0.00 | 0.00 | 0.00 | 40 | 1009.3 |
| 20260507113025 | 40 | 278 | 9.0 | 10.0 | 0.00 | 0.00 | 0.00 | 40 | 1009.4 |
| 20260507112804 | 40 | 277 | 8.0 | 9.0 | 0.00 | 0.00 | 0.00 | 39 | 1009.4 |
| 20260507112604 | 40 | 276 | 7.0 | 9.0 | 0.00 | 0.00 | 0.00 | 39 | 1009.3 |
| 20260507112404 | 40 | 276 | 7.0 | 9.0 | 0.00 | 0.00 | 0.00 | 39 | 1009.3 |
| 20260507112225 | 40 | 278 | 7.0 | 9.0 | 0.00 | 0.00 | 0.00 | 38 | 1009.3 |
| 20260507112025 | 40 | 278 | 8.0 | 9.0 | 0.00 | 0.00 | 0.00 | 39 | 1009.4 |
| 20260507111804 | 41 | 278 | 8.0 | 9.0 | 0.00 | 0.00 | 0.00 | 38 | 1009.4 |
| 20260507111625 | 41 | 278 | 8.0 | 9.0 | 0.00 | 0.00 | 0.00 | 38 | 1009.4 |
| 20260507111404 | 41 | 276 | 8.0 | 9.0 | 0.00 | 0.00 | 0.00 | 38 | 1009.4 |
| 20260507111225 | 41 | 274 | 7.0 | 9.0 | 0.00 | 0.00 | 0.00 | 38 | 1009.3 |
| 20260507111004 | 41 | 271 | 7.0 | 10.0 | 0.00 | 0.00 | 0.00 | 38 | 1009.3 |
| 20260507110804 | 41 | 269 | 8.0 | 10.0 | 0.00 | 0.00 | 0.00 | 37 | 1009.3 |
| 20260507110604 | 41 | 266 | 7.0 | 10.0 | 0.00 | 0.00 | 0.00 | 37 | 1009.3 |
| 20260507110404 | 41 | 263 | 7.0 | 10.0 | 0.00 | 0.00 | 0.00 | 37 | 1009.3 |
| 20260507110204 | 41 | 261 | 7.0 | 10.0 | 0.00 | 0.00 | 0.00 | 37 | 1009.3 |
| 20260507110004 | 41 | 259 | 7.0 | 9.0 | 0.00 | 0.00 | 0.00 | 37 | 1009.3 |
| 20260507105804 | 41 | 258 | 7.0 | 10.0 | 0.00 | 0.00 | 0.00 | 37 | 1009.3 |
| 20260507105609 | 41 | 257 | 7.0 | 10.0 | 0.00 | 0.00 | 0.00 | 37 | 1009.2 |
| 20260507105404 | 41 | 257 | 7.0 | 10.0 | 0.00 | 0.00 | 0.00 | 37 | 1009.3 |
| 20260507105225 | 41 | 256 | 7.0 | 10.0 | 0.00 | 0.00 | 0.00 | 37 | 1009.3 |
| 20260507105004 | 41 | 257 | 7.0 | 10.0 | 0.00 | 0.00 | 0.00 | 37 | 1009.2 |
| 20260507104804 | 41 | 257 | 7.0 | 9.0 | 0.00 | 0.00 | 0.00 | 37 | 1009.2 |
| 20260507104604 | 41 | 258 | 6.0 | 9.0 | 0.00 | 0.00 | 0.00 | 37 | 1009.1 |
| 20260507104404 | 41 | 260 | 7.0 | 10.0 | 0.00 | 0.00 | 0.00 | 37 | 1009.2 |
| 20260507104204 | 41 | 263 | 7.0 | 10.0 | 0.00 | 0.00 | 0.00 | 38 | 1009.2 |
| 20260507104025 | 41 | 265 | 7.0 | 10.0 | 0.00 | 0.00 | 0.00 | 38 | 1009.2 |
| 20260507103804 | 41 | 269 | 8.0 | 10.0 | 0.00 | 0.00 | 0.00 | 38 | 1009.2 |
| 20260507103604 | 41 | 273 | 8.0 | 10.0 | 0.00 | 0.00 | 0.00 | 38 | 1009.1 |
| 20260507103404 | 41 | 276 | 8.0 | 10.0 | 0.00 | 0.00 | 0.00 | 38 | 1009.2 |
| 20260507103204 | 41 | 278 | 8.0 | 10.0 | 0.00 | 0.00 | 0.00 | 38 | 1009.1 |
| 20260507103004 | 41 | 281 | 8.0 | 12.0 | 0.00 | 0.00 | 0.00 | 38 | 1009.1 |
| 20260507102804 | 41 | 283 | 8.0 | 12.0 | 0.00 | 0.00 | 0.00 | 38 | 1009.1 |
| 20260507102604 | 41 | 283 | 9.0 | 12.0 | 0.00 | 0.00 | 0.00 | 38 | 1009.1 |
| 20260507102404 | 41 | 284 | 8.0 | 12.0 | 0.00 | 0.00 | 0.00 | 37 | 1009.1 |
| 20260507102204 | 41 | 284 | 9.0 | 12.0 | 0.00 | 0.00 | 0.00 | 37 | 1009.2 |
| 20260507102004 | 41 | 284 | 8.0 | 12.0 | 0.00 | 0.00 | 0.00 | 38 | 1009.1 |
| 20260507101804 | 41 | 284 | 8.0 | 12.0 | 0.00 | 0.00 | 0.00 | 37 | 1009.1 |
| 20260507101604 | 41 | 284 | 9.0 | 12.0 | 0.00 | 0.00 | 0.00 | 37 | 1009.2 |
| 20260507101404 | 41 | 284 | 9.0 | 12.0 | 0.00 | 0.00 | 0.00 | 38 | 1009.2 |
| 20260507101225 | 41 | 284 | 9.0 | 12.0 | 0.00 | 0.00 | 0.00 | 38 | 1009.2 |
| 20260507101025 | 41 | 284 | 9.0 | 10.0 | 0.00 | 0.00 | 0.00 | 38 | 1009.2 |
| 20260507100804 | 41 | 284 | 8.0 | 10.0 | 0.00 | 0.00 | 0.00 | 37 | 1009.2 |
| 20260507100604 | 41 | 284 | 9.0 | 10.0 | 0.00 | 0.00 | 0.00 | 38 | 1009.2 |
| 20260507100404 | 41 | 284 | 9.0 | 10.0 | 0.00 | 0.00 | 0.00 | 38 | 1009.2 |
| 20260507100204 | 41 | 284 | 9.0 | 10.0 | 0.00 | 0.00 | 0.00 | 38 | 1009.1 |
| 20260507100004 | 41 | 285 | 8.0 | 9.0 | 0.00 | 0.00 | 0.00 | 38 | 1009.1 |
| 20260507095804 | 41 | 285 | 6.0 | 9.0 | 0.00 | 0.00 | 0.00 | 38 | 1009.2 |
| 20260507095604 | 41 | 283 | 7.0 | 10.0 | 0.00 | 0.00 | 0.00 | 38 | 1009.2 |
| 20260507095404 | 41 | 283 | 7.0 | 12.0 | 0.00 | 0.00 | 0.00 | 38 | 1009.1 |
| 20260507095204 | 41 | 283 | 8.0 | 12.0 | 0.00 | 0.00 | 0.00 | 38 | 1009.2 |
| 20260507095004 | 41 | 282 | 8.0 | 12.0 | 0.00 | 0.00 | 0.00 | 38 | 1009.2 |
| 20260507094804 | 41 | 282 | 9.0 | 12.0 | 0.00 | 0.00 | 0.00 | 38 | 1009.2 |
| 20260507094604 | 41 | 283 | 9.0 | 12.0 | 0.00 | 0.00 | 0.00 | 38 | 1009.2 |
| 20260507094404 | 41 | 282 | 9.0 | 12.0 | 0.00 | 0.00 | 0.00 | 38 | 1009.2 |
| 20260507094204 | 41 | 282 | 9.0 | 12.0 | 0.00 | 0.00 | 0.00 | 38 | 1009.2 |
| 20260507094005 | 41 | 282 | 9.0 | 12.0 | 0.00 | 0.00 | 0.00 | 38 | 1009.1 |
| 20260507093825 | 41 | 281 | 9.0 | 12.0 | 0.00 | 0.00 | 0.00 | 38 | 1009.2 |
| 20260507093604 | 41 | 280 | 9.0 | 12.0 | 0.00 | 0.00 | 0.00 | 38 | 1009.1 |
| 20260507093404 | 41 | 280 | 9.0 | 12.0 | 0.00 | 0.00 | 0.00 | 38 | 1009.1 |
| 20260507093225 | 41 | 279 | 9.0 | 12.0 | 0.00 | 0.00 | 0.00 | 38 | 1009.1 |
| 20260507093004 | 41 | 279 | 9.0 | 12.0 | 0.00 | 0.00 | 0.00 | 38 | 1009.1 |
| 20260507092804 | 41 | 278 | 9.0 | 12.0 | 0.00 | 0.00 | 0.00 | 38 | 1008.9 |
| 20260507092604 | 40 | 277 | 9.0 | 12.0 | 0.00 | 0.00 | 0.00 | 38 | 1008.9 |
| 20260507092404 | 40 | 276 | 9.0 | 13.0 | 0.00 | 0.00 | 0.00 | 38 | 1008.9 |
| 20260507092204 | 40 | 275 | 10.0 | 13.0 | 0.00 | 0.00 | 0.00 | 38 | 1009.0 |
| 20260507092004 | 40 | 275 | 10.0 | 13.0 | 0.00 | 0.00 | 0.00 | 38 | 1009.0 |
| 20260507091804 | 40 | 276 | 10.0 | 13.0 | 0.00 | 0.00 | 0.00 | 38 | 1008.9 |
| 20260507091604 | 40 | 276 | 10.0 | 13.0 | 0.00 | 0.00 | 0.00 | 38 | 1009.0 |
| 20260507091404 | 40 | 275 | 9.0 | 13.0 | 0.00 | 0.00 | 0.00 | 38 | 1009.0 |
| 20260507091225 | 40 | 275 | 9.0 | 13.0 | 0.00 | 0.00 | 0.00 | 38 | 1008.9 |
| 20260507091025 | 40 | 275 | 9.0 | 13.0 | 0.00 | 0.00 | 0.00 | 38 | 1008.9 |
| 20260507090804 | 40 | 275 | 10.0 | 12.0 | 0.00 | 0.00 | 0.00 | 38 | 1008.9 |
| 20260507090604 | 40 | 275 | 10.0 | 13.0 | 0.00 | 0.00 | 0.00 | 38 | 1008.9 |
| 20260507090425 | 40 | 276 | 10.0 | 13.0 | 0.00 | 0.00 | 0.00 | 38 | 1008.9 |
| 20260507090204 | 40 | 277 | 10.0 | 13.0 | 0.00 | 0.00 | 0.00 | 39 | 1008.9 |
| 20260507090004 | 40 | 277 | 10.0 | 13.0 | 0.00 | 0.00 | 0.00 | 39 | 1008.9 |
| 20260507085804 | 40 | 278 | 10.0 | 13.0 | 0.00 | 0.00 | 0.00 | 39 | 1008.9 |
| 20260507085604 | 40 | 279 | 10.0 | 13.0 | 0.00 | 0.00 | 0.00 | 39 | 1008.9 |
| 20260507085404 | 40 | 280 | 9.0 | 13.0 | 0.00 | 0.00 | 0.00 | 39 | 1008.9 |
| 20260507085204 | 40 | 282 | 10.0 | 14.0 | 0.00 | 0.00 | 0.00 | 38 | 1008.9 |
| 20260507085004 | 40 | 283 | 10.0 | 14.0 | 0.00 | 0.00 | 0.00 | 38 | 1008.8 |
| 20260507084804 | 40 | 284 | 10.0 | 14.0 | 0.00 | 0.00 | 0.00 | 38 | 1008.9 |
| 20260507084604 | 40 | 284 | 10.0 | 14.0 | 0.00 | 0.00 | 0.00 | 38 | 1008.8 |
| 20260507084404 | 41 | 285 | 10.0 | 14.0 | 0.00 | 0.00 | 0.00 | 37 | 1008.8 |
| 20260507084204 | 41 | 285 | 10.0 | 13.0 | 0.00 | 0.00 | 0.00 | 37 | 1008.8 |
| 20260507084004 | 41 | 285 | 10.0 | 13.0 | 0.00 | 0.00 | 0.00 | 37 | 1008.8 |
| 20260507083804 | 41 | 286 | 10.0 | 13.0 | 0.00 | 0.00 | 0.00 | 37 | 1008.8 |
| 20260507083604 | 41 | 287 | 9.0 | 12.0 | 0.00 | 0.00 | 0.00 | 37 | 1008.8 |
| 20260507083404 | 41 | 287 | 9.0 | 12.0 | 0.00 | 0.00 | 0.00 | 37 | 1008.7 |
| 20260507083205 | 41 | 286 | 8.0 | 12.0 | 0.00 | 0.00 | 0.00 | 37 | 1008.7 |
| 20260507083004 | 41 | 285 | 7.0 | 12.0 | 0.00 | 0.00 | 0.00 | 37 | 1008.7 |
| 20260507082804 | 41 | 285 | 8.0 | 12.0 | 0.00 | 0.00 | 0.00 | 37 | 1008.8 |
| 20260507082604 | 40 | 284 | 10.0 | 12.0 | 0.00 | 0.00 | 0.00 | 37 | 1008.8 |
| 20260507082404 | 40 | 284 | 9.0 | 10.0 | 0.00 | 0.00 | 0.00 | 37 | 1008.9 |
| 20260507082204 | 40 | 284 | 9.0 | 10.0 | 0.00 | 0.00 | 0.00 | 37 | 1008.8 |
| 20260507082004 | 40 | 282 | 7.0 | 10.0 | 0.00 | 0.00 | 0.00 | 37 | 1008.8 |
| 20260507081804 | 40 | 281 | 8.0 | 10.0 | 0.00 | 0.00 | 0.00 | 38 | 1008.9 |
| 20260507081604 | 40 | 279 | 8.0 | 10.0 | 0.00 | 0.00 | 0.00 | 38 | 1008.9 |
| 20260507081404 | 40 | 279 | 8.0 | 10.0 | 0.00 | 0.00 | 0.00 | 37 | 1008.9 |
| 20260507081204 | 40 | 280 | 9.0 | 10.0 | 0.00 | 0.00 | 0.00 | 37 | 1009.0 |
| 20260507081004 | 41 | 280 | 8.0 | 10.0 | 0.00 | 0.00 | 0.00 | 37 | 1008.9 |
| 20260507080804 | 41 | 279 | 8.0 | 10.0 | 0.00 | 0.00 | 0.00 | 37 | 1008.9 |
| 20260507080604 | 41 | 278 | 8.0 | 10.0 | 0.00 | 0.00 | 0.00 | 37 | 1009.0 |
| 20260507080404 | 41 | 277 | 9.0 | 12.0 | 0.00 | 0.00 | 0.00 | 37 | 1009.1 |
| 20260507080204 | 41 | 276 | 8.0 | 12.0 | 0.00 | 0.00 | 0.00 | 37 | 1009.1 |
| 20260507080004 | 41 | 276 | 9.0 | 12.0 | 0.00 | 0.00 | 0.00 | 37 | 1009.2 |
| 20260507075804 | 41 | 276 | 9.0 | 12.0 | 0.00 | 0.00 | 0.00 | 36 | 1009.2 |
| 20260507075604 | 41 | 274 | 9.0 | 12.0 | 0.00 | 0.00 | 0.00 | 37 | 1009.2 |
| 20260507075404 | 41 | 271 | 9.0 | 12.0 | 0.00 | 0.00 | 0.00 | 36 | 1009.3 |
| 20260507075204 | 41 | 268 | 9.0 | 12.0 | 0.00 | 0.00 | 0.00 | 36 | 1009.3 |
| 20260507075004 | 41 | 264 | 8.0 | 12.0 | 0.00 | 0.00 | 0.00 | 36 | 1009.3 |
| 20260507074804 | 41 | 263 | 6.0 | 10.0 | 0.00 | 0.00 | 0.00 | 36 | 1009.3 |
| 20260507074625 | 41 | 264 | 7.0 | 10.0 | 0.00 | 0.00 | 0.00 | 36 | 1009.2 |
| 20260507074404 | 41 | 265 | 7.0 | 12.0 | 0.00 | 0.00 | 0.00 | 36 | 1009.4 |
| 20260507074204 | 41 | 265 | 8.0 | 12.0 | 0.00 | 0.00 | 0.00 | 36 | 1009.4 |
| 20260507074004 | 41 | 264 | 9.0 | 12.0 | 0.00 | 0.00 | 0.00 | 36 | 1009.4 |
| 20260507073825 | 41 | 262 | 8.0 | 12.0 | 0.00 | 0.00 | 0.00 | 36 | 1009.3 |
| 20260507073604 | 41 | 261 | 9.0 | 12.0 | 0.00 | 0.00 | 0.00 | 36 | 1009.4 |
| 20260507073403 | 41 | 260 | 8.0 | 12.0 | 0.00 | 0.00 | 0.00 | 37 | 1009.4 |
| 20260507073204 | 41 | 260 | 8.0 | 12.0 | 0.00 | 0.00 | 0.00 | 37 | 1009.3 |
| 20260507073004 | 40 | 261 | 8.0 | 12.0 | 0.00 | 0.00 | 0.00 | 37 | 1009.4 |
| 20260507072804 | 40 | 265 | 9.0 | 12.0 | 0.00 | 0.00 | 0.00 | 37 | 1009.4 |
| 20260507072604 | 40 | 269 | 8.0 | 12.0 | 0.00 | 0.00 | 0.00 | 37 | 1009.4 |
| 20260507072404 | 40 | 271 | 8.0 | 12.0 | 0.00 | 0.00 | 0.00 | 37 | 1009.4 |
| 20260507072204 | 40 | 274 | 9.0 | 12.0 | 0.00 | 0.00 | 0.00 | 38 | 1009.4 |
| 20260507072004 | 40 | 277 | 9.0 | 12.0 | 0.00 | 0.00 | 0.00 | 37 | 1009.3 |
| 20260507071825 | 41 | 278 | 10.0 | 12.0 | 0.00 | 0.00 | 0.00 | 37 | 1009.4 |
| 20260507071604 | 41 | 279 | 10.0 | 12.0 | 0.00 | 0.00 | 0.00 | 37 | 1009.4 |
| 20260507071404 | 41 | 278 | 10.0 | 12.0 | 0.00 | 0.00 | 0.00 | 37 | 1009.4 |
| 20260507071225 | 41 | 277 | 10.0 | 12.0 | 0.00 | 0.00 | 0.00 | 37 | 1009.4 |
| 20260507071004 | 41 | 274 | 9.0 | 12.0 | 0.00 | 0.00 | 0.00 | 37 | 1009.5 |
| 20260507070804 | 41 | 271 | 9.0 | 10.0 | 0.00 | 0.00 | 0.00 | 37 | 1009.5 |
| 20260507070604 | 41 | 269 | 9.0 | 10.0 | 0.00 | 0.00 | 0.00 | 36 | 1009.5 |
| 20260507070404 | 41 | 267 | 9.0 | 10.0 | 0.00 | 0.00 | 0.00 | 36 | 1009.4 |
| 20260507070204 | 42 | 264 | 8.0 | 10.0 | 0.00 | 0.00 | 0.00 | 36 | 1009.5 |
| 20260507070025 | 42 | 263 | 8.0 | 10.0 | 0.00 | 0.00 | 0.00 | 36 | 1009.6 |
| 20260507065825 | 42 | 261 | 8.0 | 10.0 | 0.00 | 0.00 | 0.00 | 36 | 1009.5 |
| 20260507065604 | 42 | 259 | 7.0 | 9.0 | 0.00 | 0.00 | 0.00 | 35 | 1009.5 |
| 20260507065425 | 42 | 258 | 6.0 | 9.0 | 0.00 | 0.00 | 0.00 | 35 | 1009.5 |
| 20260507065204 | 42 | 256 | 7.0 | 9.0 | 0.00 | 0.00 | 0.00 | 35 | 1009.6 |
| 20260507065025 | 42 | 255 | 7.0 | 9.0 | 0.00 | 0.00 | 0.00 | 35 | 1009.7 |
| 20260507064804 | 43 | 254 | 7.0 | 8.0 | 0.00 | 0.00 | 0.00 | 34 | 1009.7 |
| 20260507064604 | 43 | 253 | 6.0 | 9.0 | 0.00 | 0.00 | 0.00 | 34 | 1009.7 |
| 20260507064425 | 43 | 252 | 6.0 | 9.0 | 0.00 | 0.00 | 0.00 | 34 | 1009.6 |
| 20260507064204 | 43 | 251 | 6.0 | 10.0 | 0.00 | 0.00 | 0.00 | 34 | 1009.7 |
| 20260507064004 | 43 | 250 | 6.0 | 10.0 | 0.00 | 0.00 | 0.00 | 34 | 1009.8 |
| 20260507063804 | 42 | 249 | 7.0 | 10.0 | 0.00 | 0.00 | 0.00 | 34 | 1009.7 |
| 20260507063604 | 42 | 248 | 7.0 | 10.0 | 0.00 | 0.00 | 0.00 | 34 | 1009.7 |
| 20260507063425 | 42 | 248 | 8.0 | 10.0 | 0.00 | 0.00 | 0.00 | 34 | 1009.7 |
| 20260507063204 | 42 | 249 | 7.0 | 8.0 | 0.00 | 0.00 | 0.00 | 35 | 1009.7 |
| 20260507063004 | 42 | 249 | 6.0 | 9.0 | 0.00 | 0.00 | 0.00 | 35 | 1009.8 |
| 20260507062804 | 41 | 249 | 6.0 | 9.0 | 0.00 | 0.00 | 0.00 | 35 | 1009.7 |
| 20260507062604 | 41 | 250 | 6.0 | 13.0 | 0.00 | 0.00 | 0.00 | 36 | 1009.7 |
| 20260507062404 | 41 | 250 | 6.0 | 13.0 | 0.00 | 0.00 | 0.00 | 37 | 1009.8 |
| 20260507062204 | 41 | 253 | 7.0 | 13.0 | 0.00 | 0.00 | 0.00 | 37 | 1009.8 |
| 20260507062004 | 41 | 255 | 7.0 | 13.0 | 0.00 | 0.00 | 0.00 | 37 | 1009.9 |
| 20260507061804 | 41 | 257 | 9.0 | 13.0 | 0.00 | 0.00 | 0.00 | 37 | 1009.9 |
| 20260507061604 | 41 | 256 | 8.0 | 10.0 | 0.00 | 0.00 | 0.00 | 38 | 1009.9 |
| 20260507061404 | 41 | 252 | 7.0 | 12.0 | 0.00 | 0.00 | 0.00 | 38 | 1009.9 |
| 20260507061225 | 42 | 246 | 7.0 | 12.0 | 0.00 | 0.00 | 0.00 | 38 | 1009.9 |
| 20260507061025 | 42 | 240 | 7.0 | 12.0 | 0.00 | 0.00 | 0.00 | 38 | 1010.0 |
| 20260507060804 | 42 | 232 | 7.0 | 12.0 | 0.00 | 0.00 | 0.00 | 38 | 1009.9 |
| 20260507060604 | 42 | 230 | 8.0 | 12.0 | 0.00 | 0.00 | 0.00 | 39 | 1009.9 |
| 20260507060404 | 42 | 229 | 7.0 | 12.0 | 0.00 | 0.00 | 0.00 | 39 | 1009.9 |
| 20260507060204 | 41 | 230 | 7.0 | 12.0 | 0.00 | 0.00 | 0.00 | 39 | 1009.9 |
| 20260507060004 | 41 | 229 | 8.0 | 13.0 | 0.00 | 0.00 | 0.00 | 40 | 1009.9 |
| 20260507055804 | 41 | 230 | 8.0 | 13.0 | 0.00 | 0.00 | 0.00 | 40 | 1009.9 |
| 20260507055625 | 41 | 229 | 7.0 | 13.0 | 0.00 | 0.00 | 0.00 | 40 | 1009.9 |
| 20260507055404 | 41 | 230 | 7.0 | 13.0 | 0.00 | 0.00 | 0.00 | 41 | 1009.9 |
| 20260507055204 | 41 | 229 | 9.0 | 13.0 | 0.00 | 0.00 | 0.00 | 41 | 1010.0 |
| 20260507055004 | 41 | 228 | 9.0 | 12.0 | 0.00 | 0.00 | 0.00 | 41 | 1010.0 |
| 20260507054804 | 41 | 227 | 8.0 | 12.0 | 0.00 | 0.00 | 0.00 | 41 | 1010.0 |
| 20260507054604 | 41 | 227 | 8.0 | 12.0 | 0.00 | 0.00 | 0.00 | 41 | 1010.0 |
| 20260507054404 | 40 | 227 | 7.0 | 12.0 | 0.00 | 0.00 | 0.00 | 42 | 1010.0 |
| 20260507054204 | 40 | 228 | 7.0 | 12.0 | 0.00 | 0.00 | 0.00 | 42 | 1010.0 |
| 20260507054004 | 41 | 227 | 7.0 | 12.0 | 0.00 | 0.00 | 0.00 | 42 | 1009.9 |
| 20260507053804 | 41 | 227 | 7.0 | 12.0 | 0.00 | 0.00 | 0.00 | 42 | 1009.9 |
| 20260507053603 | 41 | 227 | 6.0 | 12.0 | 0.00 | 0.00 | 0.00 | 42 | 1009.9 |
| 20260507053404 | 41 | 226 | 8.0 | 12.0 | 0.00 | 0.00 | 0.00 | 42 | 1009.9 |
| 20260507053204 | 41 | 225 | 8.0 | 12.0 | 0.00 | 0.00 | 0.00 | 42 | 1009.9 |
| 20260507053004 | 41 | 224 | 8.0 | 12.0 | 0.00 | 0.00 | 0.00 | 42 | 1009.9 |
| 20260507052804 | 41 | 223 | 7.0 | 13.0 | 0.00 | 0.00 | 0.00 | 42 | 1009.9 |
| 20260507052625 | 41 | 223 | 8.0 | 13.0 | 0.00 | 0.00 | 0.00 | 42 | 1009.9 |
| 20260507052404 | 41 | 223 | 8.0 | 13.0 | 0.00 | 0.00 | 0.00 | 42 | 1009.9 |
| 20260507052204 | 41 | 222 | 8.0 | 13.0 | 0.00 | 0.00 | 0.00 | 42 | 1009.9 |
| 20260507052004 | 41 | 223 | 8.0 | 13.0 | 0.00 | 0.00 | 0.00 | 42 | 1009.9 |
| 20260507051804 | 41 | 224 | 8.0 | 12.0 | 0.00 | 0.00 | 0.00 | 42 | 1010.0 |
| 20260507051604 | 41 | 224 | 8.0 | 13.0 | 0.00 | 0.00 | 0.00 | 42 | 1009.9 |
| 20260507051404 | 40 | 223 | 9.0 | 13.0 | 0.00 | 0.00 | 0.00 | 42 | 1010.0 |
| 20260507051204 | 40 | 223 | 8.0 | 13.0 | 0.00 | 0.00 | 0.00 | 43 | 1010.0 |
| 20260507051004 | 40 | 222 | 7.0 | 13.0 | 0.00 | 0.00 | 0.00 | 43 | 1010.0 |
| 20260507050804 | 40 | 222 | 8.0 | 13.0 | 0.00 | 0.00 | 0.00 | 44 | 1010.0 |
| 20260507050625 | 40 | 221 | 7.0 | 10.0 | 0.00 | 0.00 | 0.00 | 44 | 1010.0 |
| 20260507050404 | 40 | 221 | 7.0 | 10.0 | 0.00 | 0.00 | 0.00 | 44 | 1010.2 |
| 20260507050204 | 40 | 221 | 6.0 | 9.0 | 0.00 | 0.00 | 0.00 | 44 | 1010.1 |
| 20260507050004 | 40 | 220 | 6.0 | 9.0 | 0.00 | 0.00 | 0.00 | 44 | 1010.1 |
| 20260507045825 | 40 | 219 | 6.0 | 9.0 | 0.00 | 0.00 | 0.00 | 44 | 1010.2 |
| 20260507045604 | 40 | 218 | 6.0 | 10.0 | 0.00 | 0.00 | 0.00 | 43 | 1010.2 |
| 20260507045425 | 40 | 216 | 6.0 | 10.0 | 0.00 | 0.00 | 0.00 | 43 | 1010.2 |
| 20260507045225 | 40 | 216 | 6.0 | 10.0 | 0.00 | 0.00 | 0.00 | 43 | 1010.3 |
| 20260507045004 | 40 | 216 | 6.0 | 10.0 | 0.00 | 0.00 | 0.00 | 42 | 1010.2 |
| 20260507044804 | 40 | 214 | 7.0 | 10.0 | 0.00 | 0.00 | 0.00 | 43 | 1010.3 |
| 20260507044604 | 40 | 215 | 7.0 | 12.0 | 0.00 | 0.00 | 0.00 | 42 | 1010.3 |
| 20260507044404 | 41 | 216 | 8.0 | 12.0 | 0.00 | 0.00 | 0.00 | 42 | 1010.2 |
| 20260507044204 | 40 | 214 | 6.0 | 12.0 | 0.00 | 0.00 | 0.00 | 42 | 1010.3 |
| 20260507044004 | 40 | 213 | 7.0 | 12.0 | 0.00 | 0.00 | 0.00 | 42 | 1010.3 |
| 20260507043804 | 40 | 214 | 7.0 | 12.0 | 0.00 | 0.00 | 0.00 | 42 | 1010.3 |
| 20260507043604 | 40 | 213 | 7.0 | 10.0 | 0.00 | 0.00 | 0.00 | 42 | 1010.4 |
| 20260507043425 | 40 | 213 | 7.0 | 10.0 | 0.00 | 0.00 | 0.00 | 43 | 1010.4 |
| 20260507043204 | 40 | 213 | 6.0 | 10.0 | 0.00 | 0.00 | 0.00 | 43 | 1010.4 |
| 20260507043004 | 40 | 213 | 7.0 | 10.0 | 0.00 | 0.00 | 0.00 | 43 | 1010.4 |
| 20260507042804 | 40 | 215 | 6.0 | 9.0 | 0.00 | 0.00 | 0.00 | 43 | 1010.4 |
| 20260507042604 | 40 | 214 | 6.0 | 9.0 | 0.00 | 0.00 | 0.00 | 43 | 1010.5 |
| 20260507042404 | 40 | 214 | 6.0 | 9.0 | 0.00 | 0.00 | 0.00 | 43 | 1010.5 |
| 20260507042204 | 40 | 214 | 6.0 | 9.0 | 0.00 | 0.00 | 0.00 | 43 | 1010.5 |
| 20260507042004 | 40 | 214 | 7.0 | 9.0 | 0.00 | 0.00 | 0.00 | 43 | 1010.6 |
| 20260507041804 | 41 | 214 | 6.0 | 10.0 | 0.00 | 0.00 | 0.00 | 42 | 1010.6 |
| 20260507041604 | 41 | 214 | 6.0 | 10.0 | 0.00 | 0.00 | 0.00 | 42 | 1010.6 |
| 20260507041404 | 41 | 213 | 6.0 | 10.0 | 0.00 | 0.00 | 0.00 | 42 | 1010.7 |
| 20260507041204 | 41 | 214 | 6.0 | 10.0 | 0.00 | 0.00 | 0.00 | 41 | 1010.7 |
| 20260507041025 | 41 | 214 | 7.0 | 10.0 | 0.00 | 0.00 | 0.00 | 41 | 1010.7 |
| 20260507040804 | 42 | 216 | 6.0 | 10.0 | 0.00 | 0.00 | 0.00 | 41 | 1010.8 |
| 20260507040625 | 42 | 217 | 6.0 | 10.0 | 0.00 | 0.00 | 0.00 | 41 | 1010.8 |
| 20260507040404 | 42 | 220 | 6.0 | 10.0 | 0.00 | 0.00 | 0.00 | 40 | 1010.8 |
| 20260507040204 | 42 | 224 | 6.0 | 10.0 | 0.00 | 0.00 | 0.00 | 40 | 1010.8 |
| 20260507040004 | 42 | 226 | 6.0 | 8.0 | 0.00 | 0.00 | 0.00 | 40 | 1010.8 |
| 20260507035804 | 42 | 227 | 6.0 | 8.0 | 0.00 | 0.00 | 0.00 | 40 | 1010.9 |
| 20260507035625 | 42 | 226 | 7.0 | 9.0 | 0.00 | 0.00 | 0.00 | 40 | 1010.9 |
| 20260507035404 | 42 | 224 | 6.0 | 9.0 | 0.00 | 0.00 | 0.00 | 40 | 1010.9 |
| 20260507035225 | 42 | 221 | 5.0 | 9.0 | 0.00 | 0.00 | 0.00 | 40 | 1010.9 |
| 20260507035004 | 42 | 220 | 5.0 | 9.0 | 0.00 | 0.00 | 0.00 | 40 | 1011.0 |
| 20260507034804 | 42 | 220 | 6.0 | 9.0 | 0.00 | 0.00 | 0.00 | 40 | 1011.1 |
| 20260507034625 | 42 | 221 | 6.0 | 8.0 | 0.00 | 0.00 | 0.00 | 40 | 1011.1 |
| 20260507034425 | 43 | 220 | 6.0 | 9.0 | 0.00 | 0.00 | 0.00 | 40 | 1011.1 |
| 20260507034204 | 43 | 219 | 5.0 | 9.0 | 0.00 | 0.00 | 0.00 | 40 | 1011.1 |
| 20260507034004 | 43 | 218 | 5.0 | 9.0 | 0.00 | 0.00 | 0.00 | 40 | 1011.2 |
| 20260507033825 | 43 | 217 | 5.0 | 9.0 | 0.00 | 0.00 | 0.00 | 40 | 1011.2 |
| 20260507033604 | 43 | 215 | 6.0 | 9.0 | 0.00 | 0.00 | 0.00 | 39 | 1011.3 |
| 20260507033404 | 43 | 215 | 6.0 | 8.0 | 0.00 | 0.00 | 0.00 | 39 | 1011.3 |
| 20260507033204 | 43 | 215 | 6.0 | 8.0 | 0.00 | 0.00 | 0.00 | 39 | 1011.3 |
| 20260507033004 | 43 | 214 | 5.0 | 8.0 | 0.00 | 0.00 | 0.00 | 39 | 1011.3 |
| 20260507032804 | 43 | 213 | 6.0 | 8.0 | 0.00 | 0.00 | 0.00 | 39 | 1011.3 |
| 20260507032604 | 44 | 214 | 6.0 | 9.0 | 0.00 | 0.00 | 0.00 | 39 | 1011.3 |
| 20260507032425 | 44 | 214 | 5.0 | 9.0 | 0.00 | 0.00 | 0.00 | 39 | 1011.4 |
| 20260507032204 | 44 | 213 | 5.0 | 9.0 | 0.00 | 0.00 | 0.00 | 38 | 1011.3 |
| 20260507032003 | 44 | 213 | 6.0 | 9.0 | 0.00 | 0.00 | 0.00 | 38 | 1011.4 |
| 20260507031804 | 44 | 213 | 6.0 | 9.0 | 0.00 | 0.00 | 0.00 | 38 | 1011.4 |
| 20260507031625 | 44 | 213 | 5.0 | 7.0 | 0.00 | 0.00 | 0.00 | 38 | 1011.3 |
| 20260507031404 | 44 | 213 | 5.0 | 6.0 | 0.00 | 0.00 | 0.00 | 38 | 1011.4 |
| 20260507031225 | 45 | 213 | 5.0 | 6.0 | 0.00 | 0.00 | 0.00 | 38 | 1011.5 |
| 20260507031004 | 45 | 214 | 4.0 | 6.0 | 0.00 | 0.00 | 0.00 | 37 | 1011.5 |
| 20260507030804 | 45 | 214 | 4.0 | 6.0 | 0.00 | 0.00 | 0.00 | 37 | 1011.5 |
| 20260507030604 | 45 | 214 | 4.0 | 5.0 | 0.00 | 0.00 | 0.00 | 36 | 1011.6 |
| 20260507030425 | 45 | 212 | 3.0 | 5.0 | 0.00 | 0.00 | 0.00 | 36 | 1011.6 |
| 20260507030225 | 45 | 206 | 3.0 | 5.0 | 0.00 | 0.00 | 0.00 | 36 | 1011.6 |
| 20260507030004 | 45 | 197 | 3.0 | 5.0 | 0.00 | 0.00 | 0.00 | 35 | 1011.6 |
| 20260507025804 | 46 | 188 | 2.0 | 5.0 | 0.00 | 0.00 | 0.00 | 35 | 1011.7 |
| 20260507025604 | 46 | 181 | 2.0 | 5.0 | 0.00 | 0.00 | 0.00 | 34 | 1011.6 |
| 20260507025404 | 46 | 180 | 3.0 | 5.0 | 0.00 | 0.00 | 0.00 | 34 | 1011.6 |
| 20260507025225 | 46 | 179 | 3.0 | 5.0 | 0.00 | 0.00 | 0.00 | 34 | 1011.6 |
| 20260507025025 | 46 | 178 | 3.0 | 5.0 | 0.00 | 0.00 | 0.00 | 34 | 1011.5 |
| 20260507024804 | 46 | 176 | 3.0 | 5.0 | 0.00 | 0.00 | 0.00 | 34 | 1011.6 |
| 20260507024625 | 46 | 176 | 3.0 | 5.0 | 0.00 | 0.00 | 0.00 | 34 | 1011.5 |
| 20260507024425 | 46 | 174 | 3.0 | 5.0 | 0.00 | 0.00 | 0.00 | 34 | 1011.6 |
| 20260507024204 | 46 | 173 | 4.0 | 5.0 | 0.00 | 0.00 | 0.00 | 34 | 1011.5 |
| 20260507024025 | 46 | 173 | 3.0 | 5.0 | 0.00 | 0.00 | 0.00 | 34 | 1011.6 |
| 20260507023804 | 46 | 172 | 3.0 | 5.0 | 0.00 | 0.00 | 0.00 | 34 | 1011.6 |
| 20260507023604 | 46 | 171 | 3.0 | 5.0 | 0.00 | 0.00 | 0.00 | 34 | 1011.6 |
| 20260507023425 | 46 | 171 | 3.0 | 5.0 | 0.00 | 0.00 | 0.00 | 34 | 1011.6 |
| 20260507023204 | 46 | 168 | 3.0 | 5.0 | 0.00 | 0.00 | 0.00 | 34 | 1011.6 |
| 20260507023004 | 46 | 165 | 4.0 | 5.0 | 0.00 | 0.00 | 0.00 | 34 | 1011.6 |
| 20260507022804 | 46 | 162 | 4.0 | 5.0 | 0.00 | 0.00 | 0.00 | 33 | 1011.6 |
| 20260507022604 | 47 | 157 | 3.0 | 5.0 | 0.00 | 0.00 | 0.00 | 33 | 1011.6 |
| 20260507022404 | 47 | 149 | 2.0 | 4.0 | 0.00 | 0.00 | 0.00 | 33 | 1011.6 |
| 20260507022204 | 47 | 144 | 2.0 | 4.0 | 0.00 | 0.00 | 0.00 | 33 | 1011.6 |
| 20260507022003 | 47 | 137 | 2.0 | 4.0 | 0.00 | 0.00 | 0.00 | 33 | 1011.7 |
| 20260507021804 | 47 | 134 | 2.0 | 4.0 | 0.00 | 0.00 | 0.00 | 33 | 1011.7 |
| 20260507021604 | 47 | 131 | 3.0 | 4.0 | 0.00 | 0.00 | 0.00 | 33 | 1011.7 |
| 20260507021404 | 47 | 131 | 3.0 | 4.0 | 0.00 | 0.00 | 0.00 | 33 | 1011.7 |
| 20260507021204 | 47 | 131 | 3.0 | 4.0 | 0.00 | 0.00 | 0.00 | 33 | 1011.7 |
| 20260507021025 | 47 | 132 | 3.0 | 5.0 | 0.00 | 0.00 | 0.00 | 33 | 1011.8 |
| 20260507020825 | 47 | 132 | 3.0 | 5.0 | 0.00 | 0.00 | 0.00 | 33 | 1011.7 |
| 20260507020604 | 47 | 131 | 3.0 | 5.0 | 0.00 | 0.00 | 0.00 | 33 | 1011.7 |
| 20260507020404 | 47 | 131 | 3.0 | 5.0 | 0.00 | 0.00 | 0.00 | 33 | 1011.7 |
| 20260507020225 | 47 | 130 | 3.0 | 5.0 | 0.00 | 0.00 | 0.00 | 33 | 1011.7 |
| 20260507020004 | 47 | 132 | 4.0 | 5.0 | 0.00 | 0.00 | 0.00 | 33 | 1011.7 |
| 20260507015804 | 47 | 135 | 3.0 | 5.0 | 0.00 | 0.00 | 0.00 | 33 | 1011.7 |
| 20260507015604 | 47 | 139 | 4.0 | 5.0 | 0.00 | 0.00 | 0.00 | 33 | 1011.7 |
| 20260507015404 | 47 | 146 | 3.0 | 5.0 | 0.00 | 0.00 | 0.00 | 32 | 1011.7 |
| 20260507015204 | 48 | 155 | 3.0 | 4.0 | 0.00 | 0.00 | 0.00 | 32 | 1011.8 |
| 20260507015004 | 48 | 153 | 2.0 | 4.0 | 0.00 | 0.00 | 0.00 | 32 | 1011.8 |
| 20260507014825 | 48 | 146 | 2.0 | 4.0 | 0.00 | 0.00 | 0.00 | 32 | 1011.8 |
| 20260507014604 | 48 | 138 | 2.0 | 4.0 | 0.00 | 0.00 | 0.00 | 32 | 1011.7 |
| 20260507014404 | 48 | 130 | 2.0 | 4.0 | 0.00 | 0.00 | 0.00 | 32 | 1011.7 |
| 20260507014204 | 48 | 125 | 3.0 | 4.0 | 0.00 | 0.00 | 0.00 | 32 | 1011.7 |
| 20260507014024 | 48 | 121 | 3.0 | 4.0 | 0.00 | 0.00 | 0.00 | 32 | 1011.8 |
| 20260507013804 | 48 | 118 | 2.0 | 4.0 | 0.00 | 0.00 | 0.00 | 32 | 1011.8 |
| 20260507013604 | 48 | 117 | 2.0 | 4.0 | 0.00 | 0.00 | 0.00 | 32 | 1011.7 |
| 20260507013404 | 48 | 114 | 2.0 | 4.0 | 0.00 | 0.00 | 0.00 | 32 | 1011.8 |
| 20260507013204 | 48 | 112 | 2.0 | 4.0 | 0.00 | 0.00 | 0.00 | 32 | 1011.8 |
| 20260507013004 | 48 | 109 | 2.0 | 5.0 | 0.00 | 0.00 | 0.00 | 32 | 1011.7 |
| 20260507012804 | 48 | 106 | 2.0 | 5.0 | 0.00 | 0.00 | 0.00 | 32 | 1011.7 |
| 20260507012604 | 48 | 105 | 2.0 | 5.0 | 0.00 | 0.00 | 0.00 | 32 | 1011.8 |
| 20260507012404 | 48 | 105 | 2.0 | 6.0 | 0.00 | 0.00 | 0.00 | 32 | 1011.8 |
| 20260507012225 | 48 | 104 | 2.0 | 6.0 | 0.00 | 0.00 | 0.00 | 32 | 1011.8 |
| 20260507012003 | 48 | 107 | 3.0 | 6.0 | 0.00 | 0.00 | 0.00 | 32 | 1011.7 |
| 20260507011804 | 48 | 109 | 3.0 | 6.0 | 0.00 | 0.00 | 0.00 | 32 | 1011.7 |
| 20260507011604 | 48 | 110 | 4.0 | 6.0 | 0.00 | 0.00 | 0.00 | 32 | 1011.8 |
| 20260507011404 | 49 | 112 | 3.0 | 5.0 | 0.00 | 0.00 | 0.00 | 33 | 1011.8 |
| 20260507011204 | 49 | 114 | 3.0 | 5.0 | 0.00 | 0.00 | 0.00 | 32 | 1011.8 |
| 20260507011004 | 49 | 114 | 3.0 | 5.0 | 0.00 | 0.00 | 0.00 | 32 | 1011.8 |
| 20260507010804 | 49 | 118 | 2.0 | 5.0 | 0.00 | 0.00 | 0.00 | 33 | 1011.8 |
| 20260507010604 | 49 | 119 | 1.0 | 6.0 | 0.00 | 0.00 | 0.00 | 33 | 1011.7 |
| 20260507010404 | 49 | 119 | 3.0 | 6.0 | 0.00 | 0.00 | 0.00 | 32 | 1011.7 |
| 20260507010204 | 49 | 121 | 2.0 | 6.0 | 0.00 | 0.00 | 0.00 | 32 | 1011.7 |
| 20260507010004 | 49 | 122 | 3.0 | 6.0 | 0.00 | 0.00 | 0.00 | 32 | 1011.7 |
| 20260507005804 | 49 | 127 | 3.0 | 6.0 | 0.00 | 0.00 | 0.00 | 32 | 1011.7 |
| 20260507005604 | 49 | 135 | 4.0 | 6.0 | 0.00 | 0.00 | 0.00 | 31 | 1011.7 |
| 20260507005404 | 50 | 141 | 2.0 | 6.0 | 0.00 | 0.00 | 0.00 | 31 | 1011.7 |
| 20260507005204 | 50 | 137 | 3.0 | 7.0 | 0.00 | 0.00 | 0.00 | 30 | 1011.7 |
| 20260507005004 | 50 | 133 | 4.0 | 7.0 | 0.00 | 0.00 | 0.00 | 31 | 1011.7 |
| 20260507004804 | 50 | 129 | 4.0 | 7.0 | 0.00 | 0.00 | 0.00 | 31 | 1011.8 |
| 20260507004604 | 50 | 125 | 4.0 | 7.0 | 0.00 | 0.00 | 0.00 | 31 | 1011.8 |
| 20260507004404 | 50 | 123 | 5.0 | 7.0 | 0.00 | 0.00 | 0.00 | 31 | 1011.8 |
| 20260507004204 | 50 | 119 | 4.0 | 7.0 | 0.00 | 0.00 | 0.00 | 31 | 1011.7 |
| 20260507004004 | 50 | 120 | 4.0 | 7.0 | 0.00 | 0.00 | 0.00 | 31 | 1011.8 |
| 20260507003825 | 50 | 114 | 5.0 | 7.0 | 0.00 | 0.00 | 0.00 | 30 | 1011.9 |
| 20260507003604 | 50 | 97 | 4.0 | 7.0 | 0.00 | 0.00 | 0.00 | 31 | 1011.9 |
| 20260507003404 | 50 | 89 | 3.0 | 8.0 | 0.00 | 0.00 | 0.00 | 30 | 1011.9 |
| 20260507003204 | 50 | 90 | 2.0 | 8.0 | 0.00 | 0.00 | 0.00 | 30 | 1011.9 |
| 20260507003004 | 50 | 92 | 4.0 | 8.0 | 0.00 | 0.00 | 0.00 | 30 | 1011.9 |
| 20260507002804 | 50 | 100 | 5.0 | 8.0 | 0.00 | 0.00 | 0.00 | 29 | 1011.9 |
| 20260507002604 | 50 | 116 | 6.0 | 8.0 | 0.00 | 0.00 | 0.00 | 30 | 1011.9 |
| 20260507002425 | 50 | 131 | 4.0 | 7.0 | 0.00 | 0.00 | 0.00 | 30 | 1011.9 |
| 20260507002204 | 50 | 146 | 3.0 | 5.0 | 0.00 | 0.00 | 0.00 | 30 | 1012.0 |
| 20260507002025 | 51 | 149 | 2.0 | 5.0 | 0.00 | 0.00 | 0.00 | 30 | 1012.0 |
| 20260507001804 | 51 | 141 | 2.0 | 6.0 | 0.00 | 0.00 | 0.00 | 30 | 1012.0 |
| 20260507001604 | 51 | 131 | 3.0 | 6.0 | 0.00 | 0.00 | 0.00 | 30 | 1012.1 |
| 20260507001404 | 51 | 123 | 3.0 | 7.0 | 0.00 | 0.00 | 0.00 | 30 | 1012.2 |
| 20260507001204 | 51 | 116 | 2.0 | 7.0 | 0.00 | 0.00 | 0.00 | 29 | 1012.2 |
| 20260507001004 | 51 | 121 | 3.0 | 7.0 | 0.00 | 0.00 | 0.00 | 30 | 1012.2 |
| 20260507000804 | 51 | 111 | 4.0 | 8.0 | 0.00 | 0.00 | 0.00 | 29 | 1012.3 |
| 20260507000604 | 51 | 104 | 4.0 | 8.0 | 0.00 | 0.00 | 0.00 | 29 | 1012.3 |
| 20260507000405 | 51 | 104 | 3.0 | 9.0 | 0.00 | 0.00 | 0.00 | 30 | 1012.2 |
| 20260507000205 | 51 | 103 | 4.0 | 9.0 | 0.00 | 0.00 | 0.00 | 30 | 1012.3 |
| 20260507000004 | 51 | 100 | 4.0 | 9.0 | 0.00 | 0.00 | 0.00 | 30 | 1012.3 |
| 20260506235804 | 51 | 106 | 5.0 | 9.0 | 0.00 | 0.00 | 0.00 | 30 | 1012.3 |
| 20260506235604 | 51 | 110 | 5.0 | 9.0 | 0.00 | 0.00 | 0.00 | 30 | 1012.3 |
| 20260506235425 | 51 | 107 | 3.0 | 9.0 | 0.00 | 0.00 | 0.00 | 30 | 1012.4 |
| 20260506235225 | 51 | 97 | 2.0 | 12.0 | 0.00 | 0.00 | 0.00 | 29 | 1012.4 |
| 20260506235004 | 51 | 88 | 4.0 | 12.0 | 0.00 | 0.00 | 0.00 | 29 | 1012.5 |
| 20260506234804 | 51 | 81 | 6.0 | 12.0 | 0.00 | 0.00 | 0.00 | 29 | 1012.5 |
| 20260506234604 | 51 | 70 | 6.0 | 12.0 | 0.00 | 0.00 | 0.00 | 29 | 1012.4 |
| 20260506234425 | 51 | 62 | 8.0 | 12.0 | 0.00 | 0.00 | 0.00 | 29 | 1012.5 |
| 20260506234204 | 51 | 53 | 7.0 | 12.0 | 0.00 | 0.00 | 0.00 | 29 | 1012.4 |
| 20260506234003 | 51 | 49 | 4.0 | 14.0 | 0.00 | 0.00 | 0.00 | 30 | 1012.5 |
| 20260506233804 | 51 | 49 | 6.0 | 14.0 | 0.00 | 0.00 | 0.00 | 28 | 1012.5 |
| 20260506233604 | 52 | 49 | 6.0 | 14.0 | 0.00 | 0.00 | 0.00 | 28 | 1012.6 |
| 20260506233404 | 52 | 51 | 8.0 | 14.0 | 0.00 | 0.00 | 0.00 | 28 | 1012.6 |
| 20260506233204 | 52 | 52 | 10.0 | 14.0 | 0.00 | 0.00 | 0.00 | 28 | 1012.6 |
| 20260506233025 | 52 | 56 | 9.0 | 13.0 | 0.00 | 0.00 | 0.00 | 28 | 1012.7 |
| 20260506232804 | 52 | 63 | 6.0 | 12.0 | 0.00 | 0.00 | 0.00 | 29 | 1012.7 |
| 20260506232604 | 52 | 65 | 2.0 | 8.0 | 0.00 | 0.00 | 0.00 | 29 | 1012.7 |
| 20260506232403 | 52 | 59 | 1.0 | 8.0 | 0.00 | 0.00 | 0.00 | 29 | 1012.7 |
| 20260506232204 | 52 | 59 | 5.0 | 8.0 | 0.00 | 0.00 | 0.00 | 28 | 1012.7 |
| 20260506232004 | 52 | 55 | 6.0 | 8.0 | 0.00 | 0.00 | 0.00 | 29 | 1012.7 |
| 20260506231825 | 52 | 46 | 5.0 | 8.0 | 0.00 | 0.00 | 0.00 | 29 | 1012.7 |
| 20260506231604 | 52 | 43 | 4.0 | 9.0 | 0.00 | 0.00 | 0.00 | 28 | 1012.6 |
| 20260506231425 | 52 | 44 | 3.0 | 9.0 | 0.00 | 0.00 | 0.00 | 29 | 1012.7 |
| 20260506231225 | 52 | 47 | 3.0 | 10.0 | 0.00 | 0.00 | 0.00 | 28 | 1012.7 |
| 20260506231025 | 52 | 51 | 5.0 | 10.0 | 0.00 | 0.00 | 0.00 | 29 | 1012.7 |
| 20260506230804 | 52 | 54 | 7.0 | 10.0 | 0.00 | 0.00 | 0.00 | 29 | 1012.7 |
| 20260506230625 | 52 | 59 | 7.0 | 10.0 | 0.00 | 0.00 | 0.00 | 28 | 1012.7 |
| 20260506230425 | 52 | 59 | 8.0 | 10.0 | 0.00 | 0.00 | 0.00 | 29 | 1012.7 |
| 20260506230204 | 52 | 66 | 7.0 | 9.0 | 0.00 | 0.00 | 0.00 | 29 | 1012.7 |
| 20260506230004 | 52 | 115 | 2.0 | 10.0 | 0.00 | 0.00 | 0.00 | 29 | 1012.7 |
| 20260506225804 | 52 | 133 | 2.0 | 10.0 | 0.00 | 0.00 | 0.00 | 29 | 1012.7 |
| 20260506225603 | 52 | 130 | 2.0 | 13.0 | 0.00 | 0.00 | 0.00 | 29 | 1012.8 |
| 20260506225404 | 52 | 126 | 1.0 | 13.0 | 0.00 | 0.00 | 0.00 | 29 | 1012.7 |
| 20260506225225 | 52 | 115 | 3.0 | 13.0 | 0.00 | 0.00 | 0.00 | 30 | 1012.8 |
| 20260506225003 | 51 | 97 | 6.0 | 13.0 | 0.00 | 0.00 | 0.00 | 30 | 1012.7 |
| 20260506224804 | 51 | 88 | 7.0 | 13.0 | 0.00 | 0.00 | 0.00 | 30 | 1012.7 |
| 20260506224604 | 51 | 84 | 6.0 | 13.0 | 0.00 | 0.00 | 0.00 | 30 | 1012.8 |
| 20260506224404 | 51 | 85 | 9.0 | 14.0 | 0.00 | 0.00 | 0.00 | 30 | 1012.8 |
| 20260506224204 | 51 | 86 | 9.0 | 14.0 | 0.00 | 0.00 | 0.00 | 30 | 1012.8 |
| 20260506224004 | 52 | 85 | 7.0 | 14.0 | 0.00 | 0.00 | 0.00 | 29 | 1012.8 |
| 20260506223804 | 52 | 85 | 7.0 | 14.0 | 0.00 | 0.00 | 0.00 | 29 | 1012.8 |
| 20260506223604 | 52 | 82 | 9.0 | 14.0 | 0.00 | 0.00 | 0.00 | 29 | 1012.9 |
| 20260506223403 | 52 | 67 | 2.0 | 9.0 | 0.00 | 0.00 | 0.00 | 28 | 1012.9 |
| 20260506223204 | 52 | 63 | 4.0 | 6.0 | 0.00 | 0.00 | 0.00 | 29 | 1012.9 |
| 20260506223004 | 53 | 87 | 4.0 | 6.0 | 0.00 | 0.00 | 0.00 | 28 | 1013.0 |
| 20260506222804 | 53 | 161 | 3.0 | 6.0 | 0.00 | 0.00 | 0.00 | 29 | 1013.0 |
| 20260506222604 | 53 | 196 | 2.0 | 9.0 | 0.00 | 0.00 | 0.00 | 28 | 1013.0 |
| 20260506222404 | 53 | 196 | 1.0 | 10.0 | 0.00 | 0.00 | 0.00 | 29 | 1013.0 |
| 20260506222204 | 53 | 186 | 2.0 | 10.0 | 0.00 | 0.00 | 0.00 | 28 | 1013.1 |
| 20260506222004 | 53 | 181 | 4.0 | 10.0 | 0.00 | 0.00 | 0.00 | 28 | 1013.1 |
| 20260506221803 | 53 | 174 | 5.0 | 10.0 | 0.00 | 0.00 | 0.00 | 29 | 1013.0 |
| 20260506221604 | 53 | 144 | 8.0 | 10.0 | 0.00 | 0.00 | 0.00 | 29 | 1013.1 |
| 20260506221404 | 52 | 106 | 5.0 | 10.0 | 0.00 | 0.00 | 0.00 | 30 | 1013.1 |
| 20260506221204 | 52 | 83 | 3.0 | 9.0 | 0.00 | 0.00 | 0.00 | 29 | 1013.2 |
| 20260506221003 | 52 | 75 | 3.0 | 9.0 | 0.00 | 0.00 | 0.00 | 28 | 1013.2 |
| 20260506220804 | 52 | 82 | 6.0 | 9.0 | 0.00 | 0.00 | 0.00 | 29 | 1013.3 |
| 20260506220603 | 52 | 79 | 3.0 | 7.0 | 0.00 | 0.00 | 0.00 | 30 | 1013.3 |
| 20260506220404 | 51 | 97 | 3.0 | 7.0 | 0.00 | 0.00 | 0.00 | 29 | 1013.4 |
| 20260506220204 | 52 | 108 | 4.0 | 7.0 | 0.00 | 0.00 | 0.00 | 28 | 1013.4 |
| 20260506220025 | 52 | 120 | 2.0 | 9.0 | 0.00 | 0.00 | 0.00 | 29 | 1013.4 |
| 20260506215804 | 52 | 130 | 4.0 | 10.0 | 0.00 | 0.00 | 0.00 | 28 | 1013.4 |
| 20260506215604 | 53 | 142 | 5.0 | 13.0 | 0.00 | 0.00 | 0.00 | 28 | 1013.4 |
| 20260506215425 | 52 | 136 | 4.0 | 13.0 | 0.00 | 0.00 | 0.00 | 29 | 1013.6 |
| 20260506215204 | 52 | 128 | 6.0 | 13.0 | 0.00 | 0.00 | 0.00 | 29 | 1013.6 |
| 20260506215024 | 52 | 115 | 4.0 | 13.0 | 0.00 | 0.00 | 0.00 | 29 | 1013.5 |
| 20260506214825 | 52 | 107 | 8.0 | 13.0 | 0.00 | 0.00 | 0.00 | 30 | 1013.6 |
| 20260506214625 | 52 | 90 | 5.0 | 12.0 | 0.00 | 0.00 | 0.00 | 29 | 1013.6 |
| 20260506214404 | 52 | 92 | 5.0 | 10.0 | 0.00 | 0.00 | 0.00 | 28 | 1013.6 |
| 20260506214204 | 53 | 99 | 6.0 | 10.0 | 0.00 | 0.00 | 0.00 | 29 | 1013.6 |
| 20260506214004 | 52 | 118 | 5.0 | 10.0 | 0.00 | 0.00 | 0.00 | 29 | 1013.7 |
| 20260506213825 | 52 | 127 | 6.0 | 10.0 | 0.00 | 0.00 | 0.00 | 29 | 1013.7 |
| 20260506213604 | 53 | 141 | 5.0 | 13.0 | 0.00 | 0.00 | 0.00 | 28 | 1013.7 |
| 20260506213404 | 52 | 148 | 3.0 | 13.0 | 0.00 | 0.00 | 0.00 | 30 | 1013.8 |
| 20260506213204 | 52 | 147 | 5.0 | 13.0 | 0.00 | 0.00 | 0.00 | 30 | 1013.7 |
| 20260506213004 | 52 | 144 | 8.0 | 13.0 | 0.00 | 0.00 | 0.00 | 28 | 1013.8 |
| 20260506212804 | 52 | 140 | 8.0 | 13.0 | 0.00 | 0.00 | 0.00 | 29 | 1013.9 |
| 20260506212625 | 52 | 134 | 8.0 | 13.0 | 0.00 | 0.00 | 0.00 | 30 | 1013.9 |
| 20260506212404 | 52 | 112 | 5.0 | 12.0 | 0.00 | 0.00 | 0.00 | 30 | 1013.9 |
| 20260506212204 | 52 | 100 | 5.0 | 12.0 | 0.00 | 0.00 | 0.00 | 29 | 1014.0 |
| 20260506212004 | 52 | 74 | 5.0 | 12.0 | 0.00 | 0.00 | 0.00 | 30 | 1013.9 |
| 20260506211803 | 51 | 68 | 7.0 | 12.0 | 0.00 | 0.00 | 0.00 | 29 | 1013.9 |
| 20260506211604 | 51 | 64 | 3.0 | 12.0 | 0.00 | 0.00 | 0.00 | 29 | 1014.0 |
| 20260506211404 | 51 | 67 | 1.0 | 12.0 | 0.00 | 0.00 | 0.00 | 30 | 1014.1 |
| 20260506211204 | 51 | 79 | 4.0 | 12.0 | 0.00 | 0.00 | 0.00 | 29 | 1014.2 |
| 20260506211004 | 51 | 90 | 9.0 | 13.0 | 0.00 | 0.00 | 0.00 | 29 | 1014.2 |
| 20260506210804 | 51 | 100 | 6.0 | 13.0 | 0.00 | 0.00 | 0.00 | 29 | 1014.3 |
| 20260506210604 | 51 | 124 | 3.0 | 13.0 | 0.00 | 0.00 | 0.00 | 29 | 1014.4 |
| 20260506210404 | 51 | 138 | 6.0 | 13.0 | 0.00 | 0.00 | 0.00 | 28 | 1014.5 |
| 20260506210204 | 52 | 142 | 6.0 | 13.0 | 0.00 | 0.00 | 0.00 | 28 | 1014.5 |
| 20260506210025 | 52 | 151 | 3.0 | 15.0 | 0.00 | 0.00 | 0.00 | 28 | 1014.5 |
| 20260506205804 | 52 | 150 | 5.0 | 15.0 | 0.00 | 0.00 | 0.00 | 27 | 1014.6 |
| 20260506205604 | 52 | 134 | 6.0 | 15.0 | 0.00 | 0.00 | 0.00 | 30 | 1014.5 |
| 20260506205404 | 52 | 122 | 5.0 | 15.0 | 0.00 | 0.00 | 0.00 | 29 | 1014.6 |
| 20260506205204 | 52 | 132 | 7.0 | 15.0 | 0.00 | 0.00 | 0.00 | 29 | 1014.6 |
| 20260506205004 | 52 | 141 | 3.0 | 9.0 | 0.00 | 0.00 | 0.00 | 30 | 1014.6 |
| 20260506204804 | 52 | 163 | 5.0 | 14.0 | 0.00 | 0.00 | 0.00 | 29 | 1014.6 |
| 20260506204625 | 52 | 166 | 3.0 | 14.0 | 0.00 | 0.00 | 0.00 | 30 | 1014.7 |
| 20260506204404 | 52 | 165 | 3.0 | 15.0 | 0.00 | 0.00 | 0.00 | 29 | 1014.7 |
| 20260506204204 | 52 | 161 | 5.0 | 15.0 | 0.00 | 0.00 | 0.00 | 30 | 1014.8 |
| 20260506204004 | 52 | 158 | 7.0 | 15.0 | 0.00 | 0.00 | 0.00 | 29 | 1014.7 |
| 20260506203804 | 52 | 152 | 10.0 | 17.0 | 0.00 | 0.00 | 0.00 | 29 | 1014.7 |
| 20260506203604 | 52 | 153 | 7.0 | 17.0 | 0.00 | 0.00 | 0.00 | 30 | 1014.6 |
| 20260506203424 | 52 | 154 | 6.0 | 17.0 | 0.00 | 0.00 | 0.00 | 28 | 1014.7 |
| 20260506203204 | 52 | 156 | 9.0 | 17.0 | 0.00 | 0.00 | 0.00 | 28 | 1014.6 |
| 20260506203004 | 52 | 165 | 11.0 | 17.0 | 0.00 | 0.00 | 0.00 | 29 | 1014.7 |
| 20260506202804 | 52 | 197 | 6.0 | 15.0 | 0.00 | 0.00 | 0.00 | 30 | 1014.8 |
| 20260506202604 | 52 | 208 | 2.0 | 13.0 | 0.00 | 0.00 | 0.00 | 27 | 1014.8 |
| 20260506202404 | 52 | 207 | 4.0 | 13.0 | 0.00 | 0.00 | 0.00 | 29 | 1014.9 |
| 20260506202204 | 52 | 207 | 5.0 | 13.0 | 0.00 | 0.00 | 0.00 | 27 | 1014.8 |
| 20260506202004 | 52 | 192 | 8.0 | 13.0 | 0.00 | 0.00 | 0.00 | 28 | 1015.0 |
| 20260506201803 | 52 | 166 | 9.0 | 13.0 | 0.00 | 0.00 | 0.00 | 29 | 1014.9 |
| 20260506201604 | 51 | 139 | 7.0 | 13.0 | 0.00 | 0.00 | 0.00 | 30 | 1014.9 |
| 20260506201404 | 51 | 117 | 5.0 | 16.0 | 0.00 | 0.00 | 0.00 | 31 | 1015.0 |
| 20260506201204 | 51 | 107 | 4.0 | 16.0 | 0.00 | 0.00 | 0.00 | 29 | 1015.0 |
| 20260506201003 | 51 | 107 | 5.0 | 16.0 | 0.00 | 0.00 | 0.00 | 29 | 1015.1 |
| 20260506200804 | 51 | 108 | 7.0 | 16.0 | 0.00 | 0.00 | 0.00 | 28 | 1015.0 |
| 20260506200604 | 51 | 111 | 8.0 | 16.0 | 0.00 | 0.00 | 0.00 | 30 | 1015.1 |
| 20260506200404 | 51 | 118 | 5.0 | 9.0 | 0.00 | 0.00 | 0.00 | 29 | 1015.1 |
| 20260506200204 | 51 | 111 | 4.0 | 8.0 | 0.00 | 0.00 | 0.00 | 30 | 1015.1 |
| 20260506200004 | 51 | 93 | 3.0 | 8.0 | 0.00 | 0.00 | 0.00 | 31 | 1015.2 |
| 20260506195825 | 50 | 81 | 2.0 | 8.0 | 0.00 | 0.00 | 0.00 | 29 | 1015.2 |
| 20260506195604 | 50 | 75 | 2.0 | 10.0 | 0.00 | 0.00 | 0.00 | 31 | 1015.3 |
| 20260506195403 | 50 | 75 | 4.0 | 13.0 | 0.00 | 0.00 | 0.00 | 29 | 1015.3 |
| 20260506195204 | 50 | 81 | 5.0 | 13.0 | 0.00 | 0.00 | 0.00 | 29 | 1015.3 |
| 20260506195024 | 50 | 86 | 6.0 | 13.0 | 0.00 | 0.00 | 0.00 | 28 | 1015.3 |
| 20260506194804 | 51 | 108 | 7.0 | 17.0 | 0.00 | 0.00 | 0.00 | 29 | 1015.4 |
| 20260506194604 | 51 | 116 | 7.0 | 17.0 | 0.00 | 0.00 | 0.00 | 29 | 1015.4 |
| 20260506194425 | 51 | 118 | 6.0 | 17.0 | 0.00 | 0.00 | 0.00 | 29 | 1015.3 |
| 20260506194204 | 51 | 119 | 2.0 | 17.0 | 0.00 | 0.00 | 0.00 | 28 | 1015.4 |
| 20260506194004 | 51 | 114 | 9.0 | 17.0 | 0.00 | 0.00 | 0.00 | 30 | 1015.5 |
| 20260506193804 | 50 | 102 | 7.0 | 16.0 | 0.00 | 0.00 | 0.00 | 30 | 1015.4 |
| 20260506193625 | 50 | 100 | 7.0 | 16.0 | 0.00 | 0.00 | 0.00 | 30 | 1015.4 |
| 20260506193404 | 50 | 112 | 6.0 | 16.0 | 0.00 | 0.00 | 0.00 | 31 | 1015.4 |
| 20260506193204 | 50 | 129 | 6.0 | 14.0 | 0.00 | 0.00 | 0.00 | 30 | 1015.4 |
| 20260506193004 | 50 | 145 | 6.0 | 14.0 | 0.00 | 0.00 | 0.00 | 30 | 1015.5 |
| 20260506192804 | 51 | 157 | 4.0 | 9.0 | 0.00 | 0.00 | 0.00 | 28 | 1015.5 |
| 20260506192604 | 51 | 157 | 4.0 | 9.0 | 0.00 | 0.00 | 0.00 | 30 | 1015.5 |
| 20260506192404 | 50 | 140 | 4.0 | 9.0 | 0.00 | 0.00 | 0.00 | 29 | 1015.6 |
| 20260506192204 | 50 | 114 | 6.0 | 9.0 | 0.00 | 0.00 | 0.00 | 31 | 1015.6 |
| 20260506192004 | 49 | 85 | 0.0 | 9.0 | 0.00 | 0.00 | 0.00 | 30 | 1015.6 |
| 20260506191825 | 49 | 79 | 2.0 | 9.0 | 0.00 | 0.00 | 0.00 | 30 | 1015.6 |
| 20260506191604 | 49 | 82 | 4.0 | 10.0 | 0.00 | 0.00 | 0.00 | 29 | 1015.6 |
| 20260506191403 | 49 | 88 | 4.0 | 10.0 | 0.00 | 0.00 | 0.00 | 30 | 1015.6 |
| 20260506191204 | 49 | 99 | 4.0 | 14.0 | 0.00 | 0.00 | 0.00 | 32 | 1015.6 |
| 20260506191003 | 49 | 106 | 6.0 | 14.0 | 0.00 | 0.00 | 0.00 | 30 | 1015.7 |
| 20260506190825 | 49 | 114 | 6.0 | 14.0 | 0.00 | 0.00 | 0.00 | 32 | 1015.7 |
| 20260506190604 | 49 | 120 | 6.0 | 14.0 | 0.00 | 0.00 | 0.00 | 28 | 1015.8 |
| 20260506190404 | 50 | 119 | 6.0 | 14.0 | 0.00 | 0.00 | 0.00 | 30 | 1015.7 |
| 20260506190225 | 50 | 111 | 6.0 | 13.0 | 0.00 | 0.00 | 0.00 | 30 | 1015.7 |
| 20260506190004 | 49 | 108 | 7.0 | 13.0 | 0.00 | 0.00 | 0.00 | 31 | 1015.7 |
| 20260506185825 | 49 | 109 | 7.0 | 13.0 | 0.00 | 0.00 | 0.00 | 30 | 1015.8 |
| 20260506185604 | 49 | 88 | 8.0 | 13.0 | 0.00 | 0.00 | 0.00 | 31 | 1015.8 |
| 20260506185403 | 49 | 76 | 6.0 | 13.0 | 0.00 | 0.00 | 0.00 | 30 | 1015.8 |
| 20260506185204 | 49 | 77 | 2.0 | 10.0 | 0.00 | 0.00 | 0.00 | 31 | 1015.9 |
| 20260506185003 | 49 | 85 | 3.0 | 10.0 | 0.00 | 0.00 | 0.00 | 30 | 1016.0 |
| 20260506184825 | 49 | 86 | 6.0 | 10.0 | 0.00 | 0.00 | 0.00 | 30 | 1016.0 |
| 20260506184625 | 49 | 107 | 6.0 | 10.0 | 0.00 | 0.00 | 0.00 | 30 | 1016.0 |
| 20260506184404 | 49 | 118 | 4.0 | 13.0 | 0.00 | 0.00 | 0.00 | 30 | 1016.0 |
| 20260506184204 | 49 | 115 | 6.0 | 13.0 | 0.00 | 0.00 | 0.00 | 30 | 1016.1 |
| 20260506184004 | 49 | 115 | 4.0 | 13.0 | 0.00 | 0.00 | 0.00 | 30 | 1016.1 |
| 20260506183804 | 49 | 107 | 7.0 | 13.0 | 0.00 | 0.00 | 0.00 | 31 | 1016.2 |
| 20260506183625 | 49 | 86 | 8.0 | 13.0 | 0.00 | 0.00 | 0.00 | 30 | 1016.1 |
| 20260506183403 | 49 | 69 | 5.0 | 13.0 | 0.00 | 0.00 | 0.00 | 30 | 1016.2 |
| 20260506183225 | 49 | 61 | 6.0 | 13.0 | 0.00 | 0.00 | 0.00 | 31 | 1016.2 |
| 20260506183004 | 48 | 46 | 4.0 | 13.0 | 0.00 | 0.00 | 0.00 | 29 | 1016.2 |
| 20260506182825 | 48 | 44 | 10.0 | 13.0 | 0.00 | 0.00 | 0.00 | 32 | 1016.4 |
| 20260506182604 | 48 | 34 | 5.0 | 10.0 | 0.00 | 0.00 | 0.00 | 32 | 1016.3 |
| 20260506182404 | 48 | 30 | 3.0 | 9.0 | 0.00 | 0.00 | 0.00 | 30 | 1016.4 |
| 20260506182204 | 48 | 39 | 5.0 | 13.0 | 0.00 | 0.00 | 0.00 | 30 | 1016.5 |
| 20260506182004 | 48 | 57 | 4.0 | 13.0 | 0.00 | 0.00 | 0.00 | 30 | 1016.4 |
| 20260506181804 | 48 | 70 | 4.0 | 13.0 | 0.00 | 0.00 | 0.00 | 29 | 1016.4 |
| 20260506181604 | 48 | 80 | 3.0 | 13.0 | 0.00 | 0.00 | 0.00 | 31 | 1016.5 |
| 20260506181403 | 48 | 79 | 7.0 | 13.0 | 0.00 | 0.00 | 0.00 | 30 | 1016.5 |
| 20260506181225 | 49 | 79 | 6.0 | 13.0 | 0.00 | 0.00 | 0.00 | 31 | 1016.5 |
| 20260506181004 | 49 | 69 | 8.0 | 13.0 | 0.00 | 0.00 | 0.00 | 32 | 1016.5 |
| 20260506180825 | 48 | 66 | 5.0 | 13.0 | 0.00 | 0.00 | 0.00 | 33 | 1016.7 |
| 20260506180604 | 48 | 68 | 6.0 | 13.0 | 0.00 | 0.00 | 0.00 | 31 | 1016.8 |
| 20260506180425 | 48 | 71 | 9.0 | 13.0 | 0.00 | 0.00 | 0.00 | 31 | 1016.8 |
| 20260506180204 | 48 | 78 | 9.0 | 13.0 | 0.00 | 0.00 | 0.00 | 30 | 1016.7 |
| 20260506180005 | 48 | 68 | 4.0 | 13.0 | 0.00 | 0.00 | 0.00 | 34 | 1016.9 |
| 20260506175804 | 47 | 48 | 5.0 | 14.0 | 0.00 | 0.00 | 0.00 | 32 | 1016.8 |
| 20260506175604 | 47 | 34 | 3.0 | 14.0 | 0.00 | 0.00 | 0.00 | 32 | 1016.9 |
| 20260506175403 | 46 | 28 | 2.0 | 14.0 | 0.00 | 0.00 | 0.00 | 31 | 1016.9 |
| 20260506175204 | 47 | 34 | 8.0 | 16.0 | 0.00 | 0.00 | 0.00 | 30 | 1017.0 |
| 20260506175004 | 47 | 37 | 8.0 | 16.0 | 0.00 | 0.00 | 0.00 | 31 | 1017.0 |
| 20260506174804 | 47 | 43 | 9.0 | 16.0 | 0.00 | 0.00 | 0.00 | 32 | 1017.0 |
| 20260506174604 | 47 | 46 | 5.0 | 16.0 | 0.00 | 0.00 | 0.00 | 30 | 1017.0 |
| 20260506174404 | 47 | 54 | 12.0 | 16.0 | 0.00 | 0.00 | 0.00 | 32 | 1017.0 |
| 20260506174204 | 47 | 67 | 6.0 | 14.0 | 0.00 | 0.00 | 0.00 | 32 | 1017.0 |
| 20260506174025 | 47 | 68 | 6.0 | 14.0 | 0.00 | 0.00 | 0.00 | 33 | 1017.1 |
| 20260506173804 | 47 | 66 | 7.0 | 14.0 | 0.00 | 0.00 | 0.00 | 32 | 1017.1 |
| 20260506173625 | 47 | 73 | 5.0 | 14.0 | 0.00 | 0.00 | 0.00 | 32 | 1017.0 |
| 20260506173403 | 47 | 72 | 8.0 | 14.0 | 0.00 | 0.00 | 0.00 | 32 | 1017.1 |
| 20260506173204 | 47 | 67 | 4.0 | 9.0 | 0.00 | 0.00 | 0.00 | 33 | 1017.1 |
| 20260506173024 | 46 | 60 | 4.0 | 9.0 | 0.00 | 0.00 | 0.00 | 33 | 1017.1 |
| 20260506172804 | 46 | 61 | 4.0 | 13.0 | 0.00 | 0.00 | 0.00 | 34 | 1017.2 |
| 20260506172604 | 46 | 59 | 3.0 | 15.0 | 0.00 | 0.00 | 0.00 | 32 | 1017.2 |
| 20260506172404 | 46 | 59 | 5.0 | 15.0 | 0.00 | 0.00 | 0.00 | 32 | 1017.3 |
| 20260506172204 | 46 | 57 | 7.0 | 16.0 | 0.00 | 0.00 | 0.00 | 32 | 1017.3 |
| 20260506172004 | 46 | 57 | 10.0 | 16.0 | 0.00 | 0.00 | 0.00 | 32 | 1017.3 |
| 20260506171803 | 46 | 56 | 10.0 | 16.0 | 0.00 | 0.00 | 0.00 | 32 | 1017.3 |
| 20260506171604 | 46 | 53 | 9.0 | 16.0 | 0.00 | 0.00 | 0.00 | 31 | 1017.3 |
| 20260506171403 | 46 | 44 | 11.0 | 16.0 | 0.00 | 0.00 | 0.00 | 33 | 1017.2 |
| 20260506171204 | 46 | 7 | 8.0 | 14.0 | 0.00 | 0.00 | 0.00 | 32 | 1017.3 |
| 20260506171003 | 46 | 312 | 9.0 | 14.0 | 0.00 | 0.00 | 0.00 | 34 | 1017.3 |
| 20260506170804 | 46 | 275 | 2.0 | 8.0 | 0.00 | 0.00 | 0.00 | 32 | 1017.4 |
| 20260506170625 | 46 | 266 | 4.0 | 10.0 | 0.00 | 0.00 | 0.00 | 33 | 1017.4 |
| 20260506170404 | 46 | 257 | 5.0 | 10.0 | 0.00 | 0.00 | 0.00 | 32 | 1017.5 |
| 20260506170204 | 46 | 246 | 4.0 | 10.0 | 0.00 | 0.00 | 0.00 | 31 | 1017.5 |
| 20260506170025 | 46 | 248 | 3.0 | 12.0 | 0.00 | 0.00 | 0.00 | 32 | 1017.5 |
| 20260506165804 | 46 | 254 | 3.0 | 12.0 | 0.00 | 0.00 | 0.00 | 33 | 1017.5 |
| 20260506165604 | 46 | 259 | 3.0 | 12.0 | 0.00 | 0.00 | 0.00 | 32 | 1017.5 |
| 20260506165424 | 46 | 275 | 4.0 | 12.0 | 0.00 | 0.00 | 0.00 | 32 | 1017.6 |
| 20260506165204 | 46 | 328 | 7.0 | 12.0 | 0.00 | 0.00 | 0.00 | 35 | 1017.6 |
| 20260506165025 | 45 | 22 | 7.0 | 9.0 | 0.00 | 0.00 | 0.00 | 35 | 1017.6 |
| 20260506164804 | 45 | 49 | 3.0 | 9.0 | 0.00 | 0.00 | 0.00 | 32 | 1017.6 |
| 20260506164604 | 45 | 45 | 4.0 | 9.0 | 0.00 | 0.00 | 0.00 | 34 | 1017.6 |
| 20260506164404 | 44 | 29 | 3.0 | 8.0 | 0.00 | 0.00 | 0.00 | 33 | 1017.6 |
| 20260506164204 | 44 | 9 | 3.0 | 8.0 | 0.00 | 0.00 | 0.00 | 33 | 1017.7 |
| 20260506164025 | 44 | 347 | 2.0 | 10.0 | 0.00 | 0.00 | 0.00 | 32 | 1017.7 |
| 20260506163825 | 44 | 332 | 1.0 | 10.0 | 0.00 | 0.00 | 0.00 | 34 | 1017.7 |
| 20260506163604 | 44 | 331 | 3.0 | 10.0 | 0.00 | 0.00 | 0.00 | 32 | 1017.7 |
| 20260506163404 | 44 | 319 | 2.0 | 10.0 | 0.00 | 0.00 | 0.00 | 34 | 1017.7 |
| 20260506163225 | 44 | 329 | 4.0 | 10.0 | 0.00 | 0.00 | 0.00 | 32 | 1017.7 |
| 20260506163004 | 44 | 347 | 4.0 | 14.0 | 0.00 | 0.00 | 0.00 | 36 | 1017.7 |
| 20260506162804 | 44 | 10 | 5.0 | 15.0 | 0.00 | 0.00 | 0.00 | 34 | 1017.8 |
| 20260506162604 | 44 | 23 | 4.0 | 15.0 | 0.00 | 0.00 | 0.00 | 34 | 1017.7 |
| 20260506162404 | 44 | 37 | 6.0 | 15.0 | 0.00 | 0.00 | 0.00 | 33 | 1017.7 |
| 20260506162204 | 44 | 39 | 8.0 | 15.0 | 0.00 | 0.00 | 0.00 | 34 | 1017.8 |
| 20260506162004 | 44 | 37 | 8.0 | 15.0 | 0.00 | 0.00 | 0.00 | 33 | 1017.8 |
| 20260506161825 | 44 | 30 | 7.0 | 15.0 | 0.00 | 0.00 | 0.00 | 34 | 1017.8 |
| 20260506161604 | 44 | 30 | 6.0 | 14.0 | 0.00 | 0.00 | 0.00 | 35 | 1017.8 |
| 20260506161425 | 44 | 27 | 6.0 | 14.0 | 0.00 | 0.00 | 0.00 | 35 | 1017.8 |
| 20260506161204 | 44 | 28 | 9.0 | 14.0 | 0.00 | 0.00 | 0.00 | 33 | 1017.8 |
| 20260506161003 | 44 | 34 | 10.0 | 14.0 | 0.00 | 0.00 | 0.00 | 35 | 1017.8 |
| 20260506160825 | 44 | 30 | 8.0 | 13.0 | 0.00 | 0.00 | 0.00 | 33 | 1017.9 |
| 20260506160604 | 44 | 14 | 5.0 | 10.0 | 0.00 | 0.00 | 0.00 | 34 | 1017.9 |
| 20260506160404 | 44 | 5 | 4.0 | 13.0 | 0.00 | 0.00 | 0.00 | 35 | 1017.9 |
| 20260506160203 | 43 | 6 | 4.0 | 17.0 | 0.00 | 0.00 | 0.00 | 35 | 1017.9 |
| 20260506160025 | 43 | 10 | 2.0 | 17.0 | 0.00 | 0.00 | 0.00 | 37 | 1017.9 |
| 20260506155804 | 42 | 17 | 4.0 | 17.0 | 0.00 | 0.00 | 0.00 | 34 | 1018.0 |
| 20260506155604 | 42 | 25 | 6.0 | 17.0 | 0.00 | 0.00 | 0.00 | 34 | 1018.0 |
| 20260506155424 | 42 | 32 | 9.0 | 17.0 | 0.00 | 0.00 | 0.00 | 34 | 1018.0 |
| 20260506155203 | 43 | 37 | 8.0 | 15.0 | 0.00 | 0.00 | 0.00 | 35 | 1017.9 |
| 20260506155004 | 42 | 35 | 7.0 | 15.0 | 0.00 | 0.00 | 0.00 | 35 | 1018.0 |
| 20260506154804 | 42 | 31 | 10.0 | 15.0 | 0.00 | 0.00 | 0.00 | 34 | 1018.0 |
| 20260506154604 | 43 | 20 | 8.0 | 15.0 | 0.00 | 0.00 | 0.00 | 35 | 1018.0 |
| 20260506154404 | 42 | 6 | 3.0 | 13.0 | 0.00 | 0.00 | 0.00 | 36 | 1018.0 |
| 20260506154204 | 42 | 355 | 4.0 | 13.0 | 0.00 | 0.00 | 0.00 | 36 | 1018.0 |
| 20260506154004 | 42 | 341 | 3.0 | 13.0 | 0.00 | 0.00 | 0.00 | 35 | 1018.1 |
| 20260506153825 | 42 | 340 | 9.0 | 13.0 | 0.00 | 0.00 | 0.00 | 35 | 1018.0 |
| 20260506153604 | 42 | 328 | 2.0 | 12.0 | 0.00 | 0.00 | 0.00 | 35 | 1018.2 |
| 20260506153404 | 42 | 326 | 4.0 | 12.0 | 0.00 | 0.00 | 0.00 | 35 | 1018.1 |
| 20260506153204 | 42 | 342 | 6.0 | 13.0 | 0.00 | 0.00 | 0.00 | 37 | 1018.1 |
| 20260506153025 | 41 | 352 | 2.0 | 17.0 | 0.00 | 0.00 | 0.00 | 36 | 1018.1 |
| 20260506152804 | 41 | 359 | 3.0 | 17.0 | 0.00 | 0.00 | 0.00 | 36 | 1018.1 |
| 20260506152604 | 41 | 359 | 6.0 | 17.0 | 0.00 | 0.00 | 0.00 | 35 | 1018.1 |
| 20260506152425 | 41 | 360 | 7.0 | 17.0 | 0.00 | 0.00 | 0.00 | 35 | 1018.1 |
| 20260506152203 | 41 | 356 | 10.0 | 17.0 | 0.00 | 0.00 | 0.00 | 37 | 1017.9 |
| 20260506152004 | 41 | 357 | 10.0 | 19.0 | 0.00 | 0.00 | 0.00 | 36 | 1018.0 |
| 20260506151825 | 41 | 360 | 8.0 | 19.0 | 0.00 | 0.00 | 0.00 | 36 | 1018.1 |
| 20260506151604 | 41 | 10 | 9.0 | 19.0 | 0.00 | 0.00 | 0.00 | 36 | 1018.1 |
| 20260506151404 | 41 | 16 | 7.0 | 19.0 | 0.00 | 0.00 | 0.00 | 37 | 1018.0 |
| 20260506151203 | 41 | 22 | 8.0 | 19.0 | 0.00 | 0.00 | 0.00 | 36 | 1018.0 |
| 20260506151004 | 41 | 17 | 12.0 | 19.0 | 0.00 | 0.00 | 0.00 | 36 | 1018.0 |
| 20260506150825 | 42 | 13 | 13.0 | 19.0 | 0.00 | 0.00 | 0.00 | 36 | 1018.0 |
| 20260506150604 | 41 | 355 | 7.0 | 14.0 | 0.00 | 0.00 | 0.00 | 36 | 1018.0 |
| 20260506150403 | 41 | 352 | 5.0 | 12.0 | 0.00 | 0.00 | 0.00 | 36 | 1018.0 |
| 20260506150203 | 41 | 352 | 6.0 | 15.0 | 0.00 | 0.00 | 0.00 | 37 | 1018.0 |
| 20260506150024 | 41 | 360 | 4.0 | 15.0 | 0.00 | 0.00 | 0.00 | 37 | 1018.1 |
| 20260506145803 | 41 | 355 | 6.0 | 15.0 | 0.00 | 0.00 | 0.00 | 38 | 1018.1 |
| 20260506145625 | 41 | 357 | 6.0 | 15.0 | 0.00 | 0.00 | 0.00 | 38 | 1018.0 |
| 20260506145404 | 41 | 347 | 8.0 | 15.0 | 0.00 | 0.00 | 0.00 | 38 | 1018.2 |
| 20260506145204 | 41 | 325 | 4.0 | 14.0 | 0.00 | 0.00 | 0.00 | 38 | 1018.3 |
| 20260506145004 | 41 | 301 | 4.0 | 16.0 | 0.00 | 0.00 | 0.00 | 38 | 1018.3 |
| 20260506144825 | 40 | 303 | 3.0 | 16.0 | 0.00 | 0.00 | 0.00 | 38 | 1018.3 |
| 20260506144604 | 40 | 299 | 2.0 | 16.0 | 0.00 | 0.00 | 0.00 | 38 | 1018.2 |
| 20260506144425 | 41 | 309 | 7.0 | 16.0 | 0.00 | 0.00 | 0.00 | 38 | 1018.2 |